GFSSW_700_spd_021.txt.gz
Wind_Speed
32 30 27 24 20 19 19 21 27 28 28 25 21 17 15 15 16 17 17 15 14 12 12 12 13 14 15 15 16 17 18 18 16 17 18 14 17 12 19 20 18 21 19 19 21
30 27 23 20 19 18 20 25 28 27 27 24 20 16 14 13 14 17 17 16 14 13 13 13 14 15 17 18 18 17 15 15 15 19 19 19 16 19 19 19 17 20 17 21 19
22 20 19 17 16 16 21 26 25 25 25 21 19 16 13 11 11 12 15 16 15 14 14 15 15 16 17 17 18 17 20 15 21 23 22 25 23 21 22 24 18 18 18 22 26
18 17 16 15 14 17 23 24 23 24 22 20 18 14 11 10 5 10 12 12 14 14 15 15 14 14 15 17 19 19 18 20 22 23 24 24 25 24 24 24 21 18 23 20 29
16 14 12 12 15 19 21 21 21 21 19 18 16 12 10 9 6 7 8 8 9 9 9 10 11 13 15 18 19 22 20 23 24 24 24 26 27 27 30 24 19 19 21 19 22
14 12 12 13 16 18 18 18 18 18 17 15 12 9 8 6 8 2 4 6 7 7 8 9 11 13 16 19 20 23 25 25 26 25 25 28 28 28 29 25 20 20 22 23 23
12 13 16 17 17 17 16 16 16 15 15 12 9 7 6 6 5 6 6 7 8 9 11 13 14 17 20 21 22 21 26 27 26 21 20 23 29 26 20 18 22 21 23 25 25
15 16 17 17 15 14 14 14 14 13 13 10 8 6 6 7 7 8 9 10 12 13 15 16 18 20 21 22 23 21 21 17 14 20 21 24 31 22 22 27 28 27 26 26 28
19 19 18 16 14 13 12 12 12 11 10 9 7 7 8 9 11 12 13 14 15 17 18 18 20 19 20 18 16 13 16 17 19 20 20 21 32 27 20 28 34 31 30 27 28
18 19 18 16 15 15 14 13 12 10 9 8 8 6 10 8 10 11 13 14 14 16 16 16 17 16 13 8 14 17 21 24 25 19 24 29 37 38 35 32 33 32 30 27 26
16 15 14 13 12 11 11 10 7 6 7 8 6 11 10 10 12 14 15 16 17 16 13 19 15 12 14 16 17 19 20 24 25 24 25 26 29 39 38 33 30 26 21 18 16
14 13 12 11 11 11 10 9 7 8 5 7 10 12 13 14 15 17 16 15 14 12 15 14 11 16 14 18 15 14 19 24 25 19 26 29 37 35 14 12 14 13 8 9 9
12 11 10 10 9 9 8 7 6 7 5 8 9 9 11 12 12 13 11 11 9 7 7 10 13 19 14 14 16 19 22 25 25 27 29 22 27 11 14 12 9 2 6 9 13
9 9 9 8 7 7 6 6 5 4 3 6 7 6 7 5 5 6 5 5 8 9 14 12 13 15 20 17 15 19 17 22 23 21 16 18 16 21 4 5 9 6 11 12 13
6 6 6 7 7 6 6 6 5 4 4 5 6 6 3 2 4 7 8 11 12 12 18 9 13 16 15 14 14 18 19 22 22 23 26 21 13 3 10 6 3 6 13 11 15
6 6 7 7 7 7 6 5 5 2 2 4 4 5 1 5 9 12 15 17 18 14 13 14 12 18 13 11 11 14 16 25 23 17 12 12 15 8 3 3 5 6 17 21 26
4 5 5 6 5 5 4 3 2 4 3 2 5 6 6 9 10 11 10 13 6 10 4 15 8 12 8 8 9 9 20 12 8 7 8 1 14 18 16 15 8 13 19 22 30
3 4 4 4 4 4 4 4 4 5 3 4 5 8 3 8 8 6 6 5 15 6 11 6 4 1 9 9 11 19 9 9 8 9 18 30 16 14 8 4 9 19 24 31 37
4 2 1 3 2 2 4 2 3 4 4 3 7 2 4 3 6 7 9 6 8 10 5 8 5 7 18 20 12 5 12 11 17 29 28 19 22 23 16 24 30 37 37 38 40
6 5 4 2 1 2 3 7 5 6 4 3 1 2 2 8 4 6 3 12 9 9 7 5 15 12 11 12 10 10 11 9 11 7 11 16 29 31 23 33 42 45 48 45 45
6 4 4 2 2 4 5 4 6 6 6 3 4 5 7 8 7 7 5 15 12 10 15 14 10 9 16 18 17 21 23 14 16 17 9 16 21 17 38 34 38 40 38 38 36
6 6 6 5 5 2 4 4 4 5 5 7 7 7 7 11 9 5 4 11 15 17 13 10 10 17 22 20 16 14 11 7 7 16 28 32 53 43 22 40 37 39 37 35 37
6 6 6 4 2 5 4 4 4 6 7 7 7 9 11 11 7 10 10 17 17 14 8 13 4 13 4 2 2 4 9 15 26 30 41 25 36 43 37 38 38 38 37 35 36
5 4 5 3 5 5 6 5 6 8 7 8 9 10 11 13 11 8 11 14 20 20 20 19 12 16 18 20 24 31 31 31 30 33 39 38 45 40 37 37 36 36 37 35 35
7 6 5 5 5 5 5 5 6 6 6 8 7 9 11 9 14 8 14 14 18 20 13 10 15 17 22 25 27 31 32 32 34 36 39 44 43 38 37 35 34 35 33 34 36
7 6 6 5 4 3 5 4 3 5 6 6 8 11 12 12 12 16 18 15 12 13 8 11 15 19 25 25 25 30 31 33 32 32 35 37 42 37 33 34 34 30 34 37 35
7 6 6 6 3 5 6 5 5 5 5 8 12 14 16 16 17 16 18 16 18 17 15 15 12 15 20 13 26 26 11 13 26 31 35 40 38 35 32 34 34 33 37 37 32

GFSSW_700_spd_024.txt.gz
Wind_Speed
29 29 29 27 24 22 19 18 21 26 27 23 19 16 14 14 14 14 13 11 11 9 9 9 10 10 11 13 13 15 16 19 14 16 17 14 14 12 12 20 15 10 20 19 24
29 28 25 23 20 17 17 20 23 27 25 22 18 15 13 12 13 15 13 11 10 10 9 9 10 11 13 15 17 16 19 18 11 18 21 20 21 20 18 16 17 16 14 24 24
23 22 21 19 16 15 18 21 25 25 24 21 17 14 12 9 10 8 11 12 11 10 10 10 11 12 13 16 15 17 18 17 18 22 23 21 21 20 18 19 19 15 10 15 23
18 17 17 17 16 16 20 23 24 22 21 18 16 13 10 9 5 6 8 9 10 11 11 12 13 12 13 14 15 20 18 19 23 23 23 24 25 24 23 23 19 17 13 20 27
16 15 14 13 14 18 21 21 20 20 19 17 14 11 9 8 3 2 5 5 5 7 7 8 9 11 12 13 17 21 20 19 22 24 25 26 26 26 26 21 18 16 18 17 16
14 12 12 13 16 18 19 18 18 18 17 16 12 8 8 6 5 3 3 2 3 4 5 7 9 11 14 17 19 21 24 25 25 26 25 26 25 23 22 20 19 14 16 18 18
13 14 16 17 18 18 17 17 17 16 15 13 10 9 7 4 4 3 3 4 5 7 9 11 12 14 19 20 21 23 29 27 22 17 14 23 28 26 14 19 21 21 18 16 20
16 18 19 19 18 16 16 15 15 14 13 11 9 7 4 4 4 5 7 8 9 10 12 15 17 19 21 22 22 23 20 16 13 15 19 24 35 24 11 21 25 26 24 20 20
22 22 21 19 17 16 16 15 14 13 12 10 8 7 6 7 9 9 10 11 12 13 15 16 17 17 19 18 18 11 15 15 18 14 20 24 39 32 33 34 31 29 24 20 21
21 21 20 19 18 17 16 15 14 13 13 12 10 7 9 6 8 9 10 11 13 14 17 17 17 17 13 9 11 19 21 25 25 24 20 26 35 36 29 29 28 25 22 16 12
16 16 15 14 13 14 13 13 9 7 8 6 4 10 8 7 10 11 13 15 17 17 13 17 16 11 13 16 19 24 23 23 23 22 23 23 30 36 13 11 10 10 10 15 20
15 15 14 13 13 12 12 10 8 7 6 6 8 10 11 12 15 16 15 15 16 12 12 12 13 12 16 19 19 15 20 25 26 21 26 30 25 13 17 15 13 15 16 19 23
12 12 11 11 11 10 9 7 5 6 4 6 8 9 9 11 12 14 11 10 8 7 6 10 11 22 19 14 17 18 20 24 25 29 26 15 16 6 5 17 17 19 21 23 24
9 9 9 9 9 9 7 6 4 2 1 5 6 6 8 6 6 7 6 5 6 7 12 10 12 15 17 15 14 20 12 20 26 22 8 17 10 20 14 17 15 13 12 17 21
7 7 7 7 6 7 5 4 4 4 3 4 5 6 2 3 6 4 7 10 12 13 16 9 11 17 20 14 17 20 17 19 22 24 22 25 10 5 17 7 1 1 7 14 19
4 5 5 6 6 5 4 4 5 2 1 3 3 2 2 5 9 11 12 15 15 13 12 11 9 15 14 11 13 16 15 27 13 16 10 16 18 5 11 13 7 1 8 14 21
5 6 6 6 5 5 4 5 4 2 2 3 4 4 3 8 6 10 8 14 8 9 3 10 8 16 18 17 5 10 19 8 2 5 5 5 7 4 9 7 3 7 12 18 22
3 4 4 4 4 4 5 8 2 2 6 4 3 4 4 8 7 6 5 7 15 5 10 6 5 5 7 15 15 21 6 6 5 4 10 33 5 8 10 10 7 17 21 31 38
4 3 2 4 5 6 8 1 6 8 4 1 3 2 5 3 4 5 11 9 6 9 5 8 5 13 16 24 17 6 7 11 11 20 19 11 12 10 15 16 24 31 36 40 40
5 5 4 4 5 6 4 6 5 6 3 1 1 3 1 8 1 4 4 10 9 11 5 5 14 14 10 16 10 9 11 4 4 5 5 7 17 15 30 37 41 42 43 44 47
4 3 4 1 5 6 4 8 5 4 3 2 3 2 5 5 5 4 4 13 10 9 15 14 8 5 13 11 13 12 17 16 18 17 4 5 10 9 25 35 39 43 39 37 35
4 5 4 5 3 1 2 4 3 3 3 5 4 3 4 8 4 3 3 11 13 18 14 15 10 14 22 14 18 16 13 12 9 7 13 12 44 41 26 34 43 39 38 35 33
4 6 3 3 3 3 1 2 2 3 4 3 3 5 6 7 4 6 9 15 15 13 11 14 5 10 3 3 5 4 4 9 16 22 32 19 27 35 50 46 40 40 35 33 37
6 5 4 3 3 4 3 2 3 4 3 3 3 4 6 7 5 6 9 14 20 19 16 14 12 11 13 19 25 31 27 25 29 33 36 39 48 44 43 41 39 36 34 39 36
8 6 6 6 4 4 4 5 5 4 4 3 3 6 8 6 9 7 12 11 16 21 17 10 12 11 18 25 29 31 31 31 30 34 35 48 45 44 38 42 42 38 36 38 42
9 8 7 6 5 5 6 5 7 6 5 4 6 9 10 9 9 14 17 16 12 12 13 11 13 18 28 24 19 27 32 34 32 32 32 35 42 40 36 42 40 34 36 38 40
11 9 9 9 8 7 8 8 7 6 5 6 8 10 12 12 14 15 16 15 17 17 16 18 12 15 9 11 29 21 4 5 20 28 27 33 38 42 42 34 33 39 34 37 42

GFSSW_700_spd_030.txt.gz
Wind_Speed
25 30 31 30 27 27 25 24 26 29 27 23 20 19 18 17 16 14 12 12 10 9 8 6 5 4 5 6 7 8 9 12 14 12 12 11 11 14 19 21 21 20 18 18 18
28 28 29 28 27 27 26 23 23 28 26 23 19 18 18 17 15 14 13 12 11 10 8 6 5 6 8 7 8 8 10 10 11 13 16 15 15 16 18 15 12 14 16 19 22
27 27 28 27 27 26 24 21 21 27 26 22 18 16 16 15 14 13 13 12 11 9 8 7 7 8 8 9 10 11 11 10 10 14 17 18 18 19 21 17 15 17 16 17 19
25 26 26 26 26 24 22 20 21 26 25 21 17 15 13 13 10 12 13 13 11 9 8 7 8 9 10 12 13 13 11 14 13 15 19 21 21 21 20 12 15 14 16 18 19
23 24 23 24 23 22 20 21 23 26 24 20 17 14 13 12 7 11 10 10 9 9 10 10 11 11 12 10 11 15 13 15 18 19 21 21 18 15 11 14 12 12 11 7 13
22 21 21 20 20 20 20 22 24 24 22 18 15 13 12 11 6 11 10 10 10 10 9 9 8 8 9 9 14 16 18 18 16 7 8 12 12 13 12 16 17 10 13 10 12
21 20 20 20 21 22 23 24 24 22 20 17 14 12 11 11 9 10 10 9 8 7 6 8 8 10 11 13 15 15 20 13 2 5 8 15 16 15 18 21 13 9 14 17 20
21 22 23 24 25 24 24 23 22 20 17 15 13 12 11 11 10 10 8 6 6 7 7 9 10 12 13 15 16 16 15 5 8 13 13 23 29 19 14 19 16 19 23 26 31
23 25 26 25 24 24 23 23 21 19 17 15 12 11 10 10 8 7 6 6 7 8 9 10 12 13 15 15 13 9 8 13 15 17 22 20 28 22 25 23 25 29 31 30 29
26 26 25 24 24 24 23 22 20 18 16 14 13 9 5 7 7 8 8 8 8 9 11 13 14 13 13 11 7 8 16 19 21 19 22 23 23 28 27 26 27 30 28 31 32
22 23 23 23 23 22 21 19 17 16 15 12 8 9 5 6 7 7 7 8 11 13 13 15 11 11 8 7 9 13 17 22 23 25 22 18 28 31 23 16 16 20 21 23 27
19 18 20 21 21 20 17 15 15 14 13 10 6 8 9 8 8 9 10 11 11 11 12 11 9 5 5 9 14 17 19 22 21 14 22 20 19 16 13 14 13 18 22 24 25
17 18 18 18 18 17 16 13 11 12 9 9 8 8 9 9 9 9 9 8 7 6 7 7 7 12 13 13 14 17 18 19 20 23 21 9 9 9 9 13 15 18 21 25 25
14 14 14 14 14 15 13 11 10 11 4 5 6 6 8 7 6 7 5 4 4 6 7 7 7 8 11 15 18 15 11 15 18 18 8 10 6 10 15 18 17 20 22 24 26
11 12 12 11 11 10 10 9 8 8 1 4 3 5 4 3 3 4 4 6 7 11 9 5 8 13 16 10 11 16 18 18 27 25 22 10 7 11 18 19 20 20 21 23 26
8 9 9 8 8 8 8 8 8 4 3 3 3 3 4 3 2 6 9 8 6 4 6 3 7 10 11 13 15 18 19 22 8 6 4 8 4 14 18 21 19 19 20 22 26
8 9 9 9 9 9 9 10 6 3 5 4 3 5 4 5 7 8 8 6 4 3 3 9 5 8 12 12 11 12 13 6 2 1 6 12 9 14 23 22 19 19 18 22 30
7 8 9 9 9 10 11 13 5 7 7 3 3 4 5 5 4 6 9 9 9 3 8 3 4 6 8 11 11 10 8 1 4 3 6 12 8 9 20 20 16 15 19 31 38
7 7 7 8 8 10 12 10 3 6 5 6 5 5 5 2 4 6 7 7 3 4 3 4 4 10 11 12 10 6 3 6 6 10 5 6 9 11 19 23 20 21 27 38 46
7 4 5 8 9 10 11 7 5 6 5 5 6 7 6 5 6 4 5 4 4 7 7 7 9 7 7 8 6 7 8 4 3 3 5 8 11 19 19 25 23 26 37 44 52
4 1 3 5 6 7 6 6 6 7 7 7 7 7 8 7 7 6 5 6 5 7 13 12 5 5 8 7 11 8 7 6 6 7 4 4 8 14 19 22 27 37 45 53 49
5 2 5 6 3 2 4 5 5 5 7 7 7 9 8 6 7 6 6 5 9 11 12 7 8 9 11 11 7 9 10 11 6 4 8 6 27 34 32 32 31 49 49 43 36
6 6 3 2 2 2 1 2 3 3 5 5 5 6 5 5 4 5 6 7 11 10 8 11 6 7 3 2 4 10 12 12 13 18 22 7 18 23 34 46 39 45 45 39 47
6 4 4 3 2 2 2 1 2 4 5 6 5 5 5 6 6 5 7 8 10 13 15 13 9 9 11 13 17 21 23 24 26 22 28 41 54 39 39 38 43 44 48 52 54
6 5 4 5 4 3 3 3 3 4 5 6 5 6 6 5 7 8 8 9 13 16 17 12 11 13 15 19 24 27 29 25 29 30 29 39 39 38 37 41 46 51 50 51 55
6 6 5 5 5 5 6 5 6 6 8 7 7 8 8 8 9 10 10 12 13 15 17 18 11 19 24 20 12 28 30 20 23 25 32 32 41 37 40 44 46 47 54 59 56
6 6 6 5 6 7 7 8 9 9 8 8 10 10 10 12 11 12 13 14 16 17 17 18 12 14 11 15 25 23 8 14 14 18 24 33 40 41 42 43 45 53 56 58 58

GFSSW_700_spd_033.txt.gz
Wind_Speed
20 25 30 30 29 29 27 27 31 33 29 24 23 21 20 19 17 15 14 13 12 11 10 9 7 5 4 5 6 6 8 9 10 10 9 10 10 12 14 15 15 17 20 21 22
23 26 29 29 29 29 27 27 31 33 29 24 22 20 19 18 16 15 14 13 12 11 10 10 8 6 6 7 8 8 10 9 10 11 13 14 14 15 17 15 17 14 16 20 20
24 27 27 30 30 28 26 27 31 32 28 23 21 20 19 17 15 15 14 13 12 12 11 9 7 6 7 9 11 11 12 11 10 13 14 16 16 18 18 16 17 17 17 20 19
24 25 27 29 29 27 26 26 29 30 26 22 19 18 18 17 13 15 15 14 13 12 11 10 10 10 10 12 13 14 11 12 12 13 17 19 19 18 7 13 12 15 17 17 19
23 24 26 29 28 26 24 23 26 28 25 21 18 16 16 15 13 14 15 15 14 14 13 12 13 12 12 14 13 13 12 14 15 17 17 15 7 9 7 15 17 15 17 19 19
23 24 25 25 25 24 22 21 24 27 24 20 16 15 14 14 10 12 14 15 16 15 14 13 11 10 10 11 11 14 17 16 16 9 9 10 8 6 5 14 14 13 13 15 16
23 23 22 22 22 21 20 22 25 25 21 18 15 14 14 14 9 12 13 13 12 10 9 8 8 9 10 12 14 15 18 16 9 5 12 15 9 5 12 19 18 22 21 22 22
22 22 22 22 21 22 23 25 25 22 19 16 15 14 13 13 11 10 9 8 7 7 7 8 10 11 13 14 16 17 18 9 9 12 14 16 16 10 18 20 25 26 26 26 27
21 23 24 25 25 25 26 26 23 20 18 16 14 11 10 9 8 8 8 8 7 8 9 10 11 12 15 15 15 13 11 11 11 15 15 19 22 19 18 24 26 28 30 31 33
24 25 26 26 26 26 25 24 21 19 17 14 11 8 6 6 7 8 9 9 9 9 10 12 13 14 15 13 9 9 13 14 16 17 20 18 16 24 26 23 19 19 21 23 24
24 24 24 24 24 24 23 21 19 16 14 11 8 8 7 7 7 8 8 9 11 12 14 14 13 12 12 9 8 10 15 19 18 19 13 19 22 23 22 17 15 16 17 19 20
21 22 22 22 22 22 20 18 16 13 13 10 6 11 9 8 8 10 11 12 13 14 15 13 9 7 6 8 12 14 16 19 14 9 16 17 19 16 16 17 18 17 19 20 20
17 17 18 18 18 17 16 14 12 11 9 11 9 9 9 10 10 12 12 13 11 10 8 6 7 10 11 10 11 15 14 13 15 18 16 10 8 13 17 18 19 20 21 21 23
17 17 17 17 16 16 15 13 11 11 5 6 8 7 9 11 11 11 10 7 6 5 6 7 6 6 9 11 14 12 13 16 17 17 5 9 6 18 21 20 20 23 24 26 26
15 15 15 14 14 13 12 10 11 10 1 5 7 10 8 8 7 5 5 6 8 10 9 6 8 11 12 10 10 13 17 19 22 24 21 17 10 9 20 22 21 22 23 25 28
14 14 14 13 13 12 11 10 10 6 4 5 6 7 6 6 7 6 6 7 8 6 6 8 9 9 8 11 12 16 17 21 11 7 4 5 10 11 18 21 24 21 22 23 26
11 12 12 12 12 12 12 11 7 5 6 5 6 6 6 6 7 8 6 4 3 3 4 6 7 8 8 9 12 12 14 6 3 2 5 7 9 17 19 21 21 22 24 24 28
10 10 11 11 12 12 12 13 7 6 9 5 5 5 7 6 7 6 7 5 3 1 4 1 4 5 5 9 8 10 8 2 4 3 6 14 8 7 12 19 23 25 26 28 31
9 9 10 11 12 13 13 14 5 8 10 8 9 9 8 8 5 5 6 5 2 3 3 3 3 7 10 10 8 6 5 7 6 9 4 6 9 16 17 23 25 28 29 32 35
9 7 9 11 11 12 14 12 9 9 7 8 8 7 6 7 6 4 4 3 3 3 3 3 5 5 6 9 9 8 7 4 5 3 5 7 10 18 18 22 25 29 32 35 40
5 3 5 8 9 10 11 11 10 9 8 8 8 7 7 6 8 7 6 5 7 4 7 8 3 4 7 7 9 9 7 5 5 6 4 4 7 15 24 20 23 25 31 44 48
3 3 5 6 4 4 7 7 6 5 6 7 7 9 9 6 7 7 8 7 6 8 9 6 7 7 8 13 10 11 12 12 7 5 9 5 24 19 15 19 28 28 45 46 45
6 5 5 4 1 2 3 4 4 4 5 5 6 7 7 9 5 9 9 8 8 8 4 7 6 6 4 3 6 11 14 15 15 17 20 5 16 25 32 39 41 38 44 45 48
4 2 2 1 0 1 1 1 1 2 4 5 7 8 8 9 9 7 8 8 8 10 12 11 11 10 11 13 15 18 20 20 18 15 21 35 46 32 33 36 42 44 46 48 51
4 3 1 2 1 2 2 2 2 3 4 6 6 7 8 7 9 13 13 12 13 15 14 10 11 15 14 17 22 26 27 29 31 33 32 43 41 36 34 38 43 45 47 54 58
2 1 1 2 2 3 4 4 6 6 7 8 9 9 10 12 13 15 14 14 15 15 14 15 12 17 19 20 22 24 29 34 30 32 37 33 39 29 36 41 42 44 53 56 61
6 3 3 2 3 5 5 7 8 9 9 8 10 12 13 14 16 16 16 18 20 21 20 18 14 14 9 13 20 23 6 18 28 23 22 30 35 36 41 39 42 55 53 59 61

GFSSW_700_spd_036.txt.gz
Wind_Speed
18 22 25 30 30 31 30 29 34 35 30 26 24 22 21 17 17 16 15 15 13 12 11 9 8 6 5 4 3 6 8 8 9 8 8 11 12 12 11 12 14 14 19 21 19
19 22 27 30 29 31 29 29 34 35 30 26 24 23 24 19 16 16 15 13 13 12 11 9 8 7 6 5 7 8 9 8 8 10 11 14 14 15 15 12 14 11 15 20 21
20 23 27 28 29 30 28 30 34 34 29 25 24 22 20 20 16 14 14 13 12 11 10 9 8 8 8 8 9 10 11 10 10 12 14 16 17 18 14 12 12 13 13 14 15
22 25 27 28 28 27 27 30 33 33 28 23 22 20 19 17 12 13 14 14 13 11 11 10 10 11 11 11 11 12 12 11 12 13 16 18 16 8 9 9 10 12 13 15 16
24 25 26 26 27 27 27 30 33 31 26 21 20 19 18 17 14 14 15 14 13 13 13 13 13 12 13 13 13 13 12 11 14 16 18 12 6 9 10 10 11 14 16 17 19
23 22 24 26 27 26 26 29 30 28 24 20 18 16 16 15 15 11 16 15 15 15 15 15 14 13 13 12 11 13 14 14 13 16 11 7 9 9 12 14 16 17 20 19 20
22 22 23 26 26 26 26 27 29 26 22 19 16 15 14 14 10 12 14 14 14 15 13 12 11 10 10 11 13 13 14 16 14 11 13 11 13 15 15 15 18 25 23 27 25
22 22 23 25 25 24 23 25 27 24 21 17 15 14 13 13 8 8 10 9 9 9 9 9 10 11 12 13 15 17 17 10 10 12 15 15 14 13 14 23 25 25 31 28 27
21 22 22 22 22 21 22 24 25 22 19 16 14 11 9 10 8 8 7 8 8 9 9 10 11 12 13 14 16 14 10 9 10 13 15 14 19 21 18 20 23 24 24 23 23
19 20 20 19 19 21 23 24 23 20 17 13 10 8 7 8 7 7 9 9 9 10 11 11 12 14 15 15 11 8 10 10 11 15 20 18 14 18 22 20 18 18 18 18 18
20 21 21 22 22 24 24 23 19 16 14 11 8 7 7 7 7 8 9 10 10 11 12 14 14 14 15 13 9 8 11 14 14 19 15 16 20 18 20 18 16 16 17 18 19
22 23 23 23 23 23 22 19 16 13 13 10 5 10 5 5 6 8 9 10 11 13 14 15 14 13 9 7 10 12 13 15 9 7 18 18 19 18 17 17 17 17 17 17 19
20 20 21 21 21 20 18 15 12 10 8 10 7 7 8 8 9 10 11 13 13 14 13 11 8 8 10 11 10 12 12 8 11 15 19 13 17 16 15 17 18 19 19 19 20
17 18 19 19 18 16 15 13 10 10 4 6 8 8 8 9 11 11 13 12 11 9 8 8 10 9 8 9 12 10 7 14 17 15 6 9 9 18 20 22 21 21 23 24 25
16 16 16 16 16 14 13 11 10 9 1 5 10 12 9 9 10 9 9 8 8 9 9 8 10 10 11 11 9 10 13 17 20 21 18 15 9 10 14 19 21 22 24 26 27
14 14 14 13 13 12 11 9 9 5 4 4 5 7 7 8 9 8 7 9 9 10 9 10 11 11 8 9 11 12 14 19 11 7 4 2 9 8 11 14 19 22 24 26 27
13 13 13 12 12 12 11 11 7 5 4 5 6 8 7 8 8 8 8 6 5 4 7 7 9 10 8 8 9 9 11 5 4 3 5 4 8 19 17 18 19 21 24 26 29
11 11 11 12 11 12 12 12 7 5 9 5 6 6 7 8 9 8 6 7 6 5 5 5 4 7 6 7 6 10 7 2 4 3 6 14 9 6 11 14 18 21 24 28 30
11 11 12 12 12 12 13 13 5 7 8 9 9 9 9 10 7 5 6 7 5 4 3 3 4 7 8 6 6 5 5 6 5 8 4 6 9 15 19 17 16 20 25 29 32
8 8 9 11 12 12 14 14 10 8 7 8 8 6 5 8 6 4 5 4 5 4 3 2 4 5 6 7 7 7 9 4 5 3 5 6 11 17 14 14 17 20 24 29 33
5 3 5 7 9 10 12 13 13 12 10 8 8 8 7 6 9 8 6 5 6 4 5 7 5 4 6 5 8 10 11 6 6 7 4 3 8 14 24 20 16 20 25 28 41
4 3 6 6 6 7 10 11 9 9 10 9 8 9 9 7 7 7 8 6 3 5 8 7 5 6 7 12 13 15 17 15 8 6 9 5 22 14 12 21 20 20 33 41 44
5 4 5 6 3 4 6 6 7 6 6 5 6 6 6 7 5 7 8 6 8 8 5 6 5 5 5 7 10 14 16 18 20 22 20 5 15 20 32 38 34 38 42 45 44
3 1 2 2 3 2 2 3 3 3 4 6 6 7 7 7 8 7 6 8 10 12 12 12 13 13 12 12 16 18 22 22 21 17 22 35 47 38 37 36 34 40 44 44 47
2 1 1 1 1 1 1 2 2 4 4 5 6 7 7 7 9 12 13 15 15 16 16 13 15 17 19 21 23 24 26 30 33 35 32 43 44 35 31 32 38 41 43 46 52
4 2 1 1 1 2 3 3 4 4 6 7 8 9 9 11 12 16 16 17 17 18 16 16 15 19 23 24 24 24 21 30 31 33 36 35 40 30 30 37 39 39 44 51 55
3 3 4 4 5 5 5 6 7 8 7 7 9 11 12 14 15 17 19 19 20 22 22 22 21 15 12 19 20 22 8 17 26 28 26 32 31 33 37 38 37 45 49 53 53

GFSSW_700_spd_042.txt.gz
Wind_Speed
17 17 21 27 31 35 36 35 33 37 32 28 25 23 21 19 18 17 17 16 14 13 12 10 9 7 6 5 4 3 2 2 4 1 3 5 6 8 9 12 12 11 9 7 4
18 19 23 28 30 33 35 35 34 38 33 28 25 23 21 19 18 17 17 17 15 13 12 10 9 8 6 6 5 4 4 5 5 5 7 9 9 10 12 14 14 13 10 7 6
20 19 24 28 32 34 35 34 34 37 32 28 25 23 20 19 17 17 16 17 15 13 11 10 9 8 7 7 7 6 6 8 10 10 11 11 12 12 11 9 8 9 9 6 4
18 18 24 29 32 33 34 33 35 36 31 27 24 21 21 17 14 16 16 16 15 13 11 10 9 8 8 9 9 8 9 11 14 13 13 13 13 11 7 7 8 9 9 9 10
18 21 25 29 30 31 31 32 35 35 30 26 22 21 18 16 12 16 15 13 12 15 11 9 9 9 10 11 11 11 12 13 13 14 14 13 11 9 11 10 10 11 13 13 12
22 24 27 27 28 29 29 32 35 33 28 24 21 22 18 14 12 15 10 14 13 12 11 10 11 11 12 13 14 14 10 12 15 14 14 13 11 13 13 13 14 15 15 15 18
24 24 24 24 27 27 28 33 34 31 25 21 20 18 17 16 15 13 11 13 10 11 11 13 13 13 14 13 12 11 10 11 15 15 12 12 15 14 14 15 17 14 18 19 17
23 23 23 24 25 26 30 33 32 28 22 19 17 16 15 15 12 12 11 10 12 14 14 14 14 13 12 11 12 12 12 8 12 12 13 13 13 17 16 16 18 20 17 17 15
23 22 22 21 24 28 31 32 29 25 20 17 15 14 12 14 13 11 10 9 10 11 11 11 11 11 11 10 11 12 9 8 11 13 14 14 15 19 20 19 17 18 18 15 12
22 21 20 23 27 29 30 29 26 22 19 15 12 11 11 11 11 9 9 10 10 9 9 10 10 10 11 11 11 9 8 10 9 14 14 18 22 22 17 18 18 17 15 12 11
21 21 22 24 26 28 28 26 23 19 17 15 12 10 10 12 11 11 10 10 10 10 9 10 10 9 14 15 16 14 11 10 14 16 16 15 15 20 20 18 18 15 13 11 11
21 21 21 22 24 25 26 24 23 19 17 13 10 12 8 11 10 11 10 10 10 10 10 11 12 16 17 15 12 9 9 9 15 11 12 17 20 27 24 20 17 14 13 12 11
19 19 19 21 22 23 23 20 17 17 13 11 8 12 9 8 8 9 9 10 10 11 12 12 15 14 12 11 10 11 10 10 8 14 18 17 17 15 14 17 16 14 14 13 11
12 14 16 18 20 22 20 18 14 15 7 9 9 8 10 10 10 11 11 10 11 12 12 12 15 14 12 13 10 8 10 9 11 10 7 9 8 16 15 13 13 14 13 12 12
13 13 14 17 18 18 17 15 12 13 6 7 12 12 11 10 9 10 10 11 12 12 10 11 9 8 9 12 10 10 10 11 15 10 10 8 6 9 10 11 11 12 11 11 11
14 15 16 16 17 16 14 13 11 4 3 6 7 10 11 13 13 13 12 12 11 11 13 16 14 13 14 12 10 11 11 14 13 5 6 6 6 6 9 6 7 8 9 12 15
12 13 13 13 14 13 13 12 5 4 4 4 6 7 8 9 10 11 11 11 9 5 9 11 13 13 11 10 9 8 6 4 4 4 3 5 6 11 13 11 8 9 12 16 17
13 12 12 11 12 11 11 12 5 4 6 4 4 6 9 9 9 11 12 12 12 11 8 6 5 11 9 11 6 6 6 5 5 4 5 8 8 5 8 8 12 8 15 15 18
11 12 12 11 11 11 11 8 4 4 6 5 5 8 9 10 9 6 7 11 10 9 7 4 5 7 8 8 6 4 4 5 5 8 5 6 8 17 10 9 13 16 19 15 27
9 9 9 9 10 11 12 11 9 9 7 6 5 5 5 5 6 4 5 5 5 8 7 5 4 7 10 9 10 10 6 3 3 4 5 5 9 13 11 20 21 20 14 26 29
8 8 9 10 11 12 11 14 14 14 12 7 8 9 7 5 7 6 6 5 6 6 7 5 6 5 7 8 9 8 7 6 6 5 5 7 7 12 23 17 20 18 24 31 32
3 2 5 7 9 10 12 11 10 9 9 11 10 10 9 6 6 7 8 6 4 5 6 7 5 6 11 12 13 13 14 11 7 5 8 6 20 19 10 19 21 26 31 32 32
4 2 4 5 5 5 6 7 8 9 8 6 6 5 6 7 5 6 7 5 7 7 4 3 4 4 5 7 10 12 13 15 17 18 17 12 13 19 28 32 30 30 32 31 32
3 2 3 1 3 4 4 3 4 2 4 5 5 5 5 6 7 5 4 5 6 8 9 10 12 13 13 13 16 17 21 21 17 12 21 25 35 29 27 25 29 30 30 33 37
2 2 3 2 2 2 2 1 2 1 2 2 2 3 4 4 5 8 7 7 9 10 11 10 14 17 19 22 24 26 27 30 32 36 24 40 30 33 30 25 25 28 32 37 40
1 2 2 3 2 2 2 3 3 3 3 4 5 4 4 5 7 9 10 10 11 11 11 14 15 19 25 26 25 27 27 31 35 38 41 42 39 28 21 26 25 34 37 40 42
2 3 3 4 4 4 4 4 5 5 5 5 5 6 7 8 8 10 12 13 15 17 17 18 17 14 13 21 22 23 16 16 24 27 31 29 22 27 26 24 37 39 40 41 41

GFSSW_700_spd_045.txt.gz
Wind_Speed
18 18 20 24 29 32 35 36 36 34 34 28 25 22 20 19 17 17 17 15 13 12 10 9 9 7 5 4 3 2 1 2 1 3 3 3 1 9 8 12 11 9 6 7 7
18 18 18 25 28 30 34 35 36 35 35 29 25 22 20 18 17 17 16 16 13 11 10 9 8 6 5 4 4 3 4 2 4 4 3 8 7 10 6 12 13 9 6 5 5
20 19 20 24 26 29 33 35 35 36 34 29 25 21 19 18 16 17 16 15 14 12 10 9 8 6 6 6 6 5 3 8 9 8 10 10 12 11 11 15 12 10 8 6 5
17 19 21 23 26 29 33 35 34 36 33 28 24 21 19 17 8 16 16 16 15 13 10 9 9 8 7 7 7 4 10 11 13 13 13 12 13 12 11 10 10 11 12 11 10
18 18 20 23 25 30 33 34 33 36 32 27 23 20 17 15 13 14 15 14 15 13 11 11 10 8 5 9 9 4 15 15 15 13 14 14 14 13 13 12 12 13 14 15 15
17 18 20 24 26 29 31 32 34 34 30 25 22 19 17 14 12 12 14 12 13 14 11 11 11 10 11 12 11 15 16 15 15 15 15 16 17 16 15 13 14 16 17 17 16
19 21 23 24 26 28 29 30 34 32 28 24 20 19 15 15 12 12 12 11 11 11 13 12 12 12 12 15 15 14 9 13 15 17 17 15 18 18 14 14 17 18 18 19 20
22 22 24 25 26 26 27 31 32 30 25 21 19 18 16 15 15 12 11 11 14 16 14 14 13 13 14 14 12 11 11 11 14 14 17 14 11 19 18 16 17 20 23 18 18
22 22 23 23 25 26 28 31 30 26 21 19 16 15 13 14 13 13 13 12 11 11 14 13 12 12 12 9 8 11 13 10 12 17 15 16 11 23 19 20 22 20 20 19 16
22 22 22 23 23 25 30 30 27 23 19 16 13 11 10 13 12 12 11 10 10 10 10 10 10 10 11 9 13 11 10 12 12 14 14 14 17 28 23 20 19 20 19 18 16
22 21 21 22 23 29 31 27 23 20 19 20 15 13 9 11 11 13 12 11 11 10 7 10 9 9 9 13 16 18 14 15 12 20 18 18 19 25 21 21 21 19 18 16 15
21 20 20 23 27 29 28 29 23 21 17 14 12 14 9 11 11 12 12 10 10 8 10 10 11 17 17 18 17 12 11 11 13 20 16 12 20 18 27 22 21 19 17 16 16
18 19 21 26 28 28 26 22 19 19 9 11 9 15 8 10 11 11 11 11 10 10 10 11 14 17 16 15 10 9 11 11 12 14 18 18 21 15 21 16 15 16 16 17 14
16 17 20 23 24 24 21 20 15 16 7 8 8 11 12 10 11 12 12 11 11 8 13 9 20 17 16 11 10 10 15 14 10 9 9 10 9 10 15 13 12 12 15 14 14
13 15 17 18 23 20 18 14 15 14 6 6 14 10 11 12 11 11 12 12 11 9 12 10 14 10 8 9 12 9 14 13 13 13 15 15 7 7 12 12 10 11 11 12 14
12 13 16 16 17 16 14 11 13 5 1 5 6 11 10 11 13 14 12 13 14 15 15 15 15 14 12 17 14 15 12 13 10 7 9 11 9 5 6 8 9 11 12 14 14
13 14 13 15 15 15 13 11 5 6 3 3 5 6 7 8 11 12 12 11 7 5 10 9 12 18 15 12 11 11 5 5 7 5 2 5 7 12 8 11 10 10 11 11 15
13 12 12 11 11 11 10 12 6 2 4 3 3 5 5 9 10 11 11 9 12 12 10 8 9 7 11 12 5 6 7 9 6 6 7 5 8 5 9 8 9 12 12 16 17
12 13 13 12 12 12 13 9 3 3 6 5 4 5 7 9 8 7 7 8 12 11 7 5 6 9 11 8 10 5 4 9 8 12 7 8 6 13 11 3 14 12 15 19 18
10 9 9 10 10 11 11 10 11 10 8 6 4 6 4 5 4 4 6 7 8 12 12 6 6 9 10 10 12 13 9 5 5 5 8 7 11 14 12 12 15 16 18 19 18
9 9 11 11 11 11 8 12 14 13 11 8 8 7 5 5 7 5 5 7 7 6 9 7 6 6 7 7 5 7 7 7 8 8 7 10 7 8 8 13 13 17 18 20 25
8 5 7 10 10 12 10 18 13 12 11 13 12 12 9 7 6 6 6 9 4 5 7 8 5 7 8 13 13 14 11 10 9 7 11 10 24 15 13 15 18 22 14 16 21
6 3 6 8 4 7 9 8 10 11 10 7 8 8 7 9 5 9 9 7 7 6 4 3 4 5 5 6 9 12 12 14 13 16 19 16 22 22 22 29 29 27 24 24 25
6 2 4 6 6 6 7 6 6 4 6 6 6 6 5 6 8 6 5 4 5 6 8 9 11 12 15 9 13 11 16 20 17 16 27 29 32 28 26 19 19 19 19 25 32
3 3 5 3 4 5 5 4 5 5 5 6 5 6 6 4 5 8 9 8 8 8 10 10 12 13 18 20 23 26 26 23 26 33 30 37 31 31 29 27 18 22 25 31 39
2 3 4 4 4 4 4 4 5 5 4 6 6 6 6 7 8 6 8 10 10 11 11 12 10 17 24 18 20 24 27 30 32 31 34 31 31 23 21 21 25 23 33 41 42
4 3 4 4 5 5 7 7 7 7 7 8 7 6 7 8 9 10 11 13 15 16 16 15 12 8 9 14 17 19 10 13 17 17 18 22 19 17 24 25 23 33 43 42 38

GFSSW_700_spd_048.txt.gz
Wind_Speed
19 18 19 24 28 29 32 33 33 33 32 30 26 22 20 19 17 17 17 15 13 12 11 10 9 7 7 5 3 1 2 3 6 2 8 5 3 12 10 11 9 7 8 12 13
18 17 18 20 24 28 31 31 32 33 33 30 26 23 20 18 17 17 16 14 13 12 11 10 9 7 5 3 2 3 5 3 3 4 6 9 8 10 9 16 13 9 6 7 8
17 17 17 19 23 27 30 29 32 32 33 30 26 23 19 18 15 17 16 15 13 11 10 9 8 6 4 4 4 5 4 7 9 8 9 11 13 9 11 15 13 10 8 7 8
17 17 18 20 24 27 28 30 33 31 33 29 26 22 19 17 11 14 15 15 13 11 10 8 7 6 4 1 5 4 8 10 11 12 13 13 15 12 13 15 13 12 11 11 11
16 15 18 19 22 25 28 31 31 30 33 28 25 22 19 16 12 14 15 15 14 12 10 8 8 7 2 6 7 4 12 13 14 15 14 13 15 14 16 14 14 14 14 15 16
14 14 15 18 22 26 29 31 30 32 31 27 24 21 17 14 12 10 14 14 13 13 11 10 10 9 10 10 9 12 16 20 17 14 14 15 16 18 17 15 15 16 17 17 18
10 13 15 21 24 27 28 29 29 32 28 25 22 19 17 16 12 9 12 10 11 12 12 10 10 10 11 12 13 14 15 15 15 14 16 15 20 19 14 13 14 18 19 18 19
16 18 21 23 25 25 26 27 30 30 25 23 20 17 16 12 12 9 12 10 9 11 12 13 12 12 12 13 14 13 10 15 15 14 19 19 22 24 18 18 18 19 21 20 19
22 22 23 24 25 25 25 29 31 26 23 21 18 14 12 13 12 11 8 8 10 13 12 13 14 14 13 11 6 11 13 14 17 15 18 21 16 20 22 19 20 22 25 21 18
22 22 23 24 25 25 29 30 27 24 21 17 12 13 9 12 11 11 10 9 9 10 11 11 11 10 9 7 13 12 9 12 11 17 18 19 23 22 27 24 24 23 22 22 19
22 23 24 24 27 30 31 27 23 21 23 16 12 11 8 9 9 11 10 9 9 8 5 8 8 7 6 13 16 16 19 19 15 19 22 24 26 21 31 29 24 23 22 21 19
21 23 24 27 30 32 30 33 21 21 17 13 10 13 6 10 9 11 10 9 8 4 6 9 9 11 15 17 19 19 14 14 14 19 24 23 22 24 29 30 23 23 21 20 18
20 22 25 27 28 28 26 25 20 18 12 11 9 14 8 9 12 9 10 9 8 7 8 9 11 15 15 18 17 11 12 13 14 15 23 19 21 9 27 29 22 19 19 18 19
19 20 23 26 25 25 21 19 17 14 6 5 7 9 11 6 8 9 9 9 8 8 9 11 17 18 18 17 9 10 15 14 17 12 6 7 10 18 17 19 16 12 13 14 17
15 17 19 22 26 22 20 15 16 12 4 4 11 6 10 12 8 6 9 10 9 7 10 8 14 14 13 9 12 10 13 15 17 16 16 19 11 7 16 18 10 9 9 12 15
15 16 19 19 18 17 15 12 14 3 2 5 4 10 9 8 11 11 9 10 11 14 16 14 22 16 13 17 14 17 15 13 12 8 7 14 20 9 13 13 9 8 8 10 13
17 17 17 19 21 17 13 13 6 4 2 1 3 4 6 7 8 8 10 8 5 4 9 7 13 14 14 16 13 10 5 3 4 4 3 6 9 9 11 13 10 10 9 13 13
17 16 16 16 15 13 12 13 3 5 4 3 3 3 4 9 6 11 7 6 9 11 11 5 5 10 5 9 7 2 7 5 4 2 4 6 8 8 14 12 10 8 13 11 15
16 15 15 15 14 14 14 6 2 3 5 3 1 2 4 6 8 5 4 7 14 7 9 3 6 7 10 9 10 7 6 8 7 17 10 9 10 13 16 13 8 10 9 15 19
10 10 10 10 11 12 14 5 6 5 6 2 2 3 1 4 1 2 5 6 8 10 11 7 4 9 10 9 8 12 7 2 5 3 4 6 13 7 5 9 13 21 14 20 23
9 9 8 9 10 11 8 8 13 12 12 5 6 5 4 3 6 4 5 9 8 5 6 9 7 6 9 5 3 6 12 8 8 9 3 3 2 7 15 14 15 15 18 23 26
8 5 7 10 10 7 9 14 17 13 11 11 12 12 9 8 4 5 7 9 6 3 5 6 5 6 8 11 10 12 10 11 7 4 7 11 20 22 11 17 18 18 17 17 19
10 6 7 10 7 7 12 14 12 11 11 7 8 8 9 10 5 8 10 7 6 6 3 2 3 5 4 5 2 8 10 12 15 19 22 7 12 19 21 20 19 19 20 23 26
9 3 5 11 12 10 10 9 9 7 9 10 8 7 6 7 8 6 6 4 4 4 6 7 9 9 8 10 13 15 14 13 15 12 24 23 31 22 24 30 27 31 29 25 23
6 7 6 1 5 10 8 6 5 5 5 6 5 7 5 2 4 5 10 7 7 6 8 8 11 11 16 18 20 22 24 23 24 30 28 35 28 34 32 31 34 32 29 35 36
4 5 6 4 4 4 3 4 4 4 4 5 6 4 5 7 8 6 6 7 10 8 9 10 9 16 21 16 15 21 25 25 24 24 26 25 26 19 23 28 32 31 34 33 39
3 4 4 4 5 4 8 8 7 6 6 7 7 6 6 7 8 9 10 11 13 15 15 13 11 10 7 10 15 17 4 7 9 8 15 21 24 25 30 30 29 31 33 41 42

GFSSW_700_spd_054.txt.gz
Wind_Speed
22 21 19 20 21 26 31 31 31 32 32 32 29 29 25 24 25 24 23 22 21 19 18 16 16 15 14 12 10 6 3 13 12 13 10 7 9 11 10 9 9 10 13 14 13
20 19 17 17 17 20 27 28 29 32 31 32 30 30 26 24 24 24 23 24 19 20 22 17 15 14 15 13 11 9 6 5 6 4 6 9 13 14 15 13 12 10 12 14 13
20 21 20 19 18 18 23 24 29 31 32 32 32 29 26 23 23 23 23 26 19 22 20 20 16 16 15 14 11 8 7 7 6 9 10 13 16 18 18 16 13 12 12 12 14
20 18 21 19 18 18 20 22 29 30 32 32 33 29 25 23 20 22 22 24 19 23 17 16 17 18 15 13 10 8 8 8 9 10 13 16 18 20 19 16 15 15 13 13 14
14 18 19 16 17 18 18 25 29 31 33 33 32 29 25 23 17 23 20 19 22 15 26 14 16 15 15 13 11 9 9 10 11 13 17 20 20 18 17 17 18 18 16 14 15
15 16 16 15 18 16 21 26 30 33 34 35 31 28 25 23 15 20 18 17 20 18 19 18 15 13 13 12 11 9 9 11 14 17 19 19 18 17 14 17 20 19 17 15 17
15 15 15 16 16 17 21 27 31 34 35 34 29 26 24 22 14 19 20 17 15 16 17 15 10 11 11 11 11 11 12 15 17 18 17 16 17 13 13 17 19 17 17 16 18
12 16 16 14 15 19 25 30 33 35 35 31 27 25 24 19 16 17 18 16 16 14 14 13 13 12 11 12 11 12 14 17 15 11 16 16 19 14 17 17 16 17 17 17 18
10 13 14 16 20 24 29 31 34 34 31 28 25 25 22 19 17 15 17 16 15 15 14 14 13 13 13 14 14 15 15 13 13 13 14 16 21 19 21 21 21 20 19 19 19
14 17 20 23 26 28 31 33 34 31 29 26 24 21 19 17 18 15 16 15 15 14 15 15 14 16 17 16 16 14 17 11 12 15 20 21 24 20 21 24 24 24 21 21 21
19 22 25 28 30 32 34 34 31 28 27 23 23 14 17 16 16 14 13 13 13 14 14 15 16 14 14 15 13 13 14 17 18 22 23 23 23 20 20 28 30 28 23 22 21
22 25 28 32 34 33 33 32 32 29 23 16 22 11 12 14 14 13 12 12 12 11 12 13 12 12 13 11 10 11 15 20 23 22 21 19 27 25 26 33 24 23 21 20 21
24 29 33 33 32 30 30 29 29 22 17 16 20 12 10 13 14 14 13 13 11 12 12 12 9 11 11 11 12 16 19 21 22 20 21 25 31 23 12 14 21 18 18 19 19
28 33 35 33 28 28 27 27 26 19 10 11 12 11 9 9 8 11 12 12 12 12 13 9 13 13 13 14 16 18 19 18 17 15 13 15 9 27 22 14 8 7 11 15 16
29 32 33 30 30 28 27 26 21 14 4 9 11 12 12 10 7 9 11 11 11 11 11 8 9 10 11 13 13 16 14 14 15 17 18 21 9 14 13 4 2 3 6 12 11
26 29 30 25 21 21 22 23 18 3 3 9 11 10 13 13 9 6 7 10 10 11 12 13 13 13 12 14 14 13 13 14 17 13 5 5 8 4 2 4 6 5 8 8 7
25 25 25 23 17 16 17 19 7 1 7 7 7 11 10 9 8 7 9 9 9 7 10 12 16 16 11 11 12 14 12 4 2 1 6 3 6 10 10 13 10 7 2 3 3
23 23 23 17 15 15 16 16 2 5 6 6 8 10 9 6 5 3 6 10 9 9 7 6 6 12 9 7 5 6 8 5 5 3 4 4 6 5 8 6 6 5 5 5 9
20 18 20 17 16 14 17 6 3 6 6 6 9 8 7 6 4 4 6 7 6 8 6 6 7 9 10 8 6 6 8 8 5 7 3 5 6 5 1 3 6 4 6 8 9
16 17 18 16 13 13 16 3 5 6 5 7 4 5 5 7 6 5 6 5 5 9 12 7 6 10 10 11 12 14 7 4 6 2 4 5 4 4 3 8 5 6 12 13 14
17 17 16 15 14 13 13 8 5 4 4 5 6 7 7 8 7 7 5 6 7 8 7 10 11 5 7 6 6 9 15 10 6 5 5 2 2 4 3 2 7 11 15 19 22
17 15 17 17 15 15 16 14 9 6 7 8 8 11 11 11 10 12 10 10 5 5 6 8 7 6 8 8 8 8 7 9 6 4 5 3 7 10 7 7 12 24 27 25 20
17 16 15 16 14 14 14 11 10 12 12 10 9 12 14 13 8 12 12 11 12 10 5 6 5 3 2 6 10 9 9 13 16 17 17 5 8 11 15 14 26 29 26 22 21
14 11 14 16 15 13 12 10 10 10 8 8 9 9 9 11 14 5 8 6 5 5 6 6 8 9 6 3 5 10 13 13 15 13 18 23 22 18 21 28 27 22 21 22 26
13 9 12 15 16 11 9 5 4 5 6 5 7 8 7 7 9 10 9 7 6 6 6 6 8 10 11 12 15 18 19 19 22 24 21 25 26 20 15 18 18 21 22 25 24
12 10 10 9 15 12 11 9 6 4 4 4 4 5 6 6 5 2 4 4 6 6 6 8 9 11 14 15 17 17 15 18 19 18 20 13 8 14 14 19 22 24 27 28 30
10 10 12 11 12 11 10 8 4 5 5 5 5 5 5 7 7 7 7 8 8 10 11 12 11 8 7 10 11 13 7 8 9 11 11 13 15 16 21 24 24 25 29 32 38

GFSSW_700_spd_057.txt.gz
Wind_Speed
30 29 28 28 28 29 30 34 33 31 32 33 33 31 30 28 26 27 28 27 25 22 21 19 19 17 16 13 10 8 7 12 13 12 10 7 7 8 9 11 13 13 13 14 16
26 26 24 24 25 23 24 28 28 30 31 32 33 31 31 29 26 27 27 26 26 25 21 20 20 18 16 15 13 9 7 8 11 12 8 8 10 12 13 13 15 14 13 14 15
26 24 21 20 20 18 19 22 23 28 31 32 33 31 30 28 25 25 26 24 27 25 23 21 19 19 17 16 14 12 10 9 7 7 9 11 15 17 17 17 16 15 15 14 14
23 18 18 19 18 16 17 18 19 28 31 33 33 32 30 28 23 25 25 22 28 20 24 22 19 17 16 17 15 12 10 10 10 11 12 14 17 19 20 19 16 16 15 15 15
20 14 15 15 15 14 16 17 21 28 31 34 33 33 30 27 24 24 23 20 24 22 23 23 22 18 14 14 15 12 11 11 12 13 15 17 20 22 22 19 16 17 18 17 16
18 16 19 17 15 15 17 18 24 29 32 34 34 32 29 25 24 21 22 17 23 17 24 23 20 19 15 16 15 13 13 13 13 15 19 22 22 21 18 16 14 18 18 17 15
14 14 14 14 14 14 17 21 26 31 33 34 34 30 27 24 21 20 21 17 19 20 23 26 26 11 18 19 14 14 14 16 16 18 21 22 23 16 14 12 15 16 15 15 16
11 13 13 13 13 16 18 22 28 32 34 34 31 28 27 25 20 20 21 18 17 23 19 22 22 21 15 15 14 16 17 18 18 18 15 15 23 16 16 17 18 19 15 15 16
9 11 13 14 15 16 20 25 29 32 33 32 29 28 26 26 18 21 21 19 17 16 17 21 18 17 16 16 16 17 18 20 20 17 15 14 19 16 18 19 19 18 17 16 17
6 10 13 14 16 20 24 27 30 32 31 29 26 24 24 24 19 20 19 18 18 17 16 17 17 18 18 18 19 20 20 21 20 15 17 21 24 21 21 22 21 21 21 19 16
8 12 16 20 23 27 29 31 31 29 29 23 24 11 21 23 19 18 18 18 18 18 18 18 19 20 18 18 20 18 15 16 17 18 22 26 29 23 19 25 25 24 26 21 15
14 17 22 25 27 29 31 31 29 27 21 15 24 11 20 18 19 17 17 17 18 18 18 17 18 17 17 17 16 14 15 17 17 19 23 27 31 29 25 26 28 26 21 15 15
19 20 24 26 28 29 29 28 26 21 16 19 19 13 17 20 16 15 15 15 15 16 17 15 13 16 15 15 14 14 16 18 20 22 22 26 32 20 14 17 17 16 20 18 13
24 27 27 27 26 26 27 26 22 19 9 15 15 12 17 13 10 13 14 14 13 13 14 12 15 12 12 13 13 16 16 16 16 15 8 13 10 29 18 11 11 8 7 8 8
28 29 27 24 25 25 26 25 20 12 4 11 18 11 9 12 9 12 13 14 13 14 14 10 9 11 13 14 12 13 15 16 15 15 18 21 9 12 11 1 1 2 1 2 4
26 27 20 22 22 22 27 19 15 2 3 10 12 10 13 13 8 11 12 13 14 13 12 14 12 11 12 12 13 14 15 14 16 16 5 8 8 5 1 1 4 4 4 2 0
25 24 19 17 15 16 23 16 4 1 9 7 10 11 13 13 11 9 9 10 10 10 13 14 16 17 16 15 12 12 10 5 2 0 6 2 5 10 10 9 4 4 3 2 1
24 22 16 13 13 14 19 13 1 3 5 6 7 12 11 11 9 7 8 10 11 10 6 7 5 11 11 13 7 5 8 5 4 2 4 5 6 3 5 4 3 3 3 2 6
22 21 16 11 12 12 16 7 1 6 6 7 10 12 10 10 5 6 6 6 8 10 6 5 5 7 9 8 7 4 7 7 4 5 3 6 5 5 0 3 3 1 2 4 8
21 19 20 14 10 10 15 3 4 5 7 9 3 5 8 9 6 5 5 4 7 9 9 6 5 8 9 11 11 12 7 4 5 2 4 4 5 3 1 2 1 1 4 7 10
21 20 19 13 10 9 13 5 6 5 5 6 6 6 6 7 8 7 4 4 5 4 7 8 9 4 6 8 9 9 13 8 4 4 4 2 2 2 3 3 4 7 15 19 18
18 17 20 17 15 14 15 14 10 7 6 7 7 9 8 9 9 9 8 7 3 3 4 6 6 6 7 9 9 8 8 10 7 4 5 3 6 12 10 10 10 16 24 21 14
19 17 19 18 17 16 17 16 13 12 11 11 9 11 13 12 8 11 12 11 11 10 5 5 5 3 2 6 11 11 11 13 13 15 13 4 6 10 14 15 19 25 26 15 14
19 14 16 19 19 17 16 14 12 12 12 11 11 11 10 12 14 6 7 7 7 7 8 6 9 9 5 4 4 6 7 11 14 12 14 20 22 15 16 24 26 20 17 19 22
18 15 14 13 21 15 14 10 8 9 9 7 8 9 8 8 10 12 11 7 7 7 7 7 8 10 11 12 15 16 17 17 20 22 21 28 27 24 23 17 17 17 21 22 24
19 12 14 13 17 15 12 11 8 5 4 4 4 6 6 6 6 2 5 5 5 6 7 8 8 10 12 14 17 20 18 18 18 15 18 17 19 17 17 18 19 21 22 24 31
17 12 12 9 18 13 11 9 5 5 4 4 5 4 6 6 6 5 6 7 7 7 9 11 11 10 6 11 12 14 16 14 13 13 14 15 15 15 17 20 21 20 25 33 42

GFSSW_700_spd_063.txt.gz
Wind_Speed
25 27 28 29 29 29 29 29 30 32 32 31 32 34 33 36 34 32 32 26 27 25 25 24 22 20 17 15 12 10 8 8 12 12 10 8 5 6 8 9 11 12 13 14 13
26 27 28 29 29 30 30 29 29 30 32 32 32 34 34 36 36 34 25 28 29 26 25 25 24 22 18 16 14 12 11 7 8 11 10 9 8 8 11 12 14 14 15 15 14
26 27 29 29 30 29 28 28 29 29 31 31 30 33 34 35 35 30 28 28 29 26 27 27 26 23 20 17 16 14 12 8 7 10 10 9 10 12 13 14 16 17 17 15 13
26 27 28 29 29 27 26 27 27 27 28 29 28 32 34 34 29 31 29 27 27 25 26 28 26 23 20 18 18 15 13 9 7 8 9 11 12 14 16 17 19 20 17 13 12
26 26 27 26 26 24 23 25 24 24 24 26 28 33 34 35 30 17 28 26 24 21 22 27 26 21 17 18 18 16 15 12 10 10 11 13 15 17 18 20 20 17 13 11 12
24 24 24 22 21 19 18 22 21 21 22 24 28 32 34 34 31 13 24 25 22 18 20 22 25 22 16 17 19 18 15 14 13 11 12 14 18 19 21 22 17 13 10 11 14
23 21 20 16 15 18 16 15 18 20 20 23 27 31 33 28 30 18 19 24 21 18 18 21 29 22 15 17 16 13 14 15 15 13 13 16 21 21 17 15 12 11 13 14 14
21 17 13 9 10 12 14 15 16 17 18 21 25 28 27 27 28 27 15 23 20 19 24 21 26 22 13 17 20 21 17 15 13 15 18 18 24 21 16 12 13 15 16 16 13
18 14 7 6 8 11 13 13 13 12 16 19 22 23 23 23 25 26 15 22 21 22 19 24 24 21 18 14 15 15 16 16 16 18 21 23 25 19 15 18 19 18 18 19 16
16 11 5 4 6 8 9 9 6 10 14 18 20 20 20 21 22 21 18 22 21 22 24 18 21 25 22 19 21 17 16 17 19 21 22 23 25 20 21 23 23 23 21 21 17
13 9 5 1 2 2 3 6 8 10 15 13 18 8 18 21 18 17 19 21 20 21 25 18 22 28 25 19 17 16 18 20 19 18 19 22 26 22 21 26 28 26 24 21 18
11 9 10 8 9 12 15 13 13 15 12 7 20 11 18 20 17 15 19 19 20 19 20 20 22 18 18 18 17 19 20 21 20 19 17 20 26 24 23 17 17 19 22 22 21
10 11 14 14 17 16 15 15 18 10 9 13 10 15 17 19 13 15 19 18 19 19 18 15 12 18 18 18 17 18 18 15 14 16 18 22 25 12 19 20 14 16 18 17 20
8 12 16 17 15 15 15 19 12 11 8 10 11 12 14 14 11 12 18 15 17 16 15 11 12 10 16 14 14 14 14 13 13 14 8 15 8 25 10 9 8 7 6 12 15
9 12 14 12 12 15 13 11 7 7 4 8 7 14 13 12 13 11 14 13 12 12 13 10 11 12 11 11 11 11 11 12 13 14 14 15 5 3 3 3 3 3 1 1 6
11 11 8 10 14 5 7 4 3 2 3 10 8 10 13 9 12 12 13 9 9 8 10 9 8 10 12 11 10 10 9 11 14 11 3 4 4 2 2 4 3 2 1 2 7
12 8 7 10 4 5 5 4 5 2 10 10 11 11 11 11 9 10 11 11 8 8 10 12 10 10 9 10 9 10 9 4 2 0 3 2 5 4 4 3 2 2 4 6 8
11 7 7 7 1 7 3 4 3 6 3 9 11 9 11 12 7 8 9 10 12 10 6 11 5 12 13 14 9 7 8 4 3 2 2 4 5 2 2 1 3 5 7 8 5
14 11 8 4 1 5 9 4 6 1 4 8 15 12 12 14 7 9 7 8 9 10 7 6 6 7 8 7 8 7 8 7 3 2 2 4 3 4 3 4 5 6 6 6 6
18 12 8 4 1 4 8 6 5 2 6 9 4 7 9 12 6 7 6 4 7 8 11 6 4 8 9 9 10 9 5 3 4 2 3 4 5 6 10 9 7 7 8 7 7
20 17 12 8 5 5 9 5 1 4 5 3 4 5 6 9 6 5 3 3 6 6 9 8 8 4 7 7 9 10 11 8 5 4 3 2 3 8 11 11 11 11 11 13 16
20 19 17 13 10 8 9 11 3 2 1 0 1 1 2 4 4 4 4 3 4 6 5 7 5 4 6 8 8 9 9 9 6 5 6 2 6 10 9 10 11 13 16 19 23
20 20 18 16 15 13 10 9 8 8 5 4 4 4 4 4 4 6 7 7 7 6 4 6 5 3 1 5 10 9 10 12 13 11 10 4 4 6 9 12 16 19 21 24 16
20 18 20 18 19 16 13 11 9 9 9 9 9 9 9 8 9 4 5 5 7 7 8 7 6 5 2 1 2 4 6 9 14 8 10 16 17 17 15 18 19 22 21 15 18
23 20 18 10 21 19 15 10 7 9 9 10 8 8 6 6 8 11 9 5 3 4 5 7 5 5 7 8 9 10 12 14 17 19 19 22 23 20 20 19 18 14 16 18 21
26 22 17 16 13 13 18 14 11 8 7 5 6 4 7 6 5 3 8 7 6 4 6 6 5 5 8 10 12 16 16 20 21 22 24 22 21 14 14 15 16 16 18 20 23
27 23 19 12 15 15 14 14 9 9 7 5 5 3 5 5 5 3 4 4 4 4 5 7 6 7 5 7 10 15 7 8 11 13 13 14 14 15 14 12 15 18 19 24 31

GFSSW_700_spd_069.txt.gz
Wind_Speed
19 21 22 23 24 25 26 27 27 29 30 30 31 32 33 33 32 33 35 30 29 28 29 27 25 24 23 20 19 16 12 14 13 11 10 11 10 10 7 7 6 7 7 8 14
21 23 24 24 25 25 26 27 28 29 30 31 31 31 32 32 34 37 26 31 29 31 29 28 26 25 22 21 21 19 15 14 11 11 12 9 10 10 8 7 9 11 12 13 14
23 25 26 26 26 26 26 27 28 29 31 31 32 32 31 31 32 30 35 32 33 31 30 29 28 28 23 24 21 20 16 15 13 12 12 11 12 11 9 9 8 12 17 16 16
24 26 27 26 26 27 28 28 28 28 30 31 32 32 31 29 17 30 33 32 33 30 30 29 28 28 23 20 21 17 18 15 14 14 14 13 12 11 10 10 11 14 19 19 16
26 27 26 26 27 26 26 26 27 28 29 30 30 32 31 32 33 18 26 31 32 31 30 29 26 26 17 14 16 22 12 22 18 14 14 13 11 10 10 13 13 16 19 18 15
28 26 25 26 24 22 22 23 25 25 25 27 28 29 30 35 22 27 17 28 31 29 29 29 24 23 15 16 19 15 15 19 18 17 15 13 13 12 12 13 15 16 15 13 14
26 25 24 23 19 19 20 20 20 21 21 23 23 26 29 27 24 31 23 24 30 29 27 26 21 27 24 16 24 17 15 17 18 19 17 15 15 17 14 13 16 15 13 14 14
25 23 23 18 15 16 16 16 16 17 17 19 19 21 27 17 24 29 24 25 30 28 27 26 23 18 28 20 21 22 16 9 9 16 18 14 13 11 14 17 17 14 14 15 16
23 22 20 15 13 12 11 13 14 15 15 14 13 14 12 14 24 28 23 25 28 27 25 23 21 16 20 24 14 18 18 20 18 12 17 17 13 16 19 20 17 17 19 21 20
21 20 18 12 9 6 7 8 8 9 9 6 5 2 3 2 14 29 18 25 26 26 26 23 19 18 16 20 24 21 21 18 19 21 20 19 19 16 21 18 21 22 21 22 23
18 18 14 9 6 6 8 7 13 17 4 2 3 6 5 14 16 22 20 22 20 23 22 22 19 22 22 21 18 13 17 21 20 13 20 16 19 17 15 21 21 24 25 23 26
14 15 11 10 11 12 11 11 9 8 4 6 6 6 10 19 12 14 19 17 19 21 18 18 21 18 18 21 19 15 14 14 14 20 22 25 23 24 20 24 24 20 19 20 21
10 11 12 13 14 12 10 10 9 8 4 4 4 4 10 17 9 12 18 13 17 19 23 17 13 19 22 18 17 16 16 14 12 11 15 20 26 17 19 15 18 22 17 16 18
6 10 11 10 12 13 14 15 11 9 0 1 4 7 11 11 10 17 19 12 14 19 17 17 16 18 16 18 17 18 15 18 11 8 10 11 13 11 11 6 5 10 12 11 12
3 6 8 10 8 13 18 17 14 10 1 3 4 8 14 7 8 15 16 12 12 16 13 11 13 12 17 10 13 13 14 9 9 10 11 16 8 8 11 4 6 11 10 10 10
1 2 4 7 8 8 16 17 16 3 2 1 3 5 9 5 7 15 16 15 14 13 8 10 15 11 12 17 13 12 9 7 8 8 11 15 12 5 3 10 10 12 12 12 10
4 1 3 3 3 6 11 19 7 5 5 2 2 7 4 10 2 10 15 11 7 14 13 8 8 13 13 12 11 10 7 7 7 6 5 3 5 5 8 9 9 8 8 8 7
7 3 3 1 3 5 8 11 5 9 8 4 3 8 2 7 3 8 10 12 12 11 17 14 8 9 12 11 5 9 9 11 6 6 1 3 7 4 10 8 7 7 6 5 3
10 7 4 4 3 9 8 9 10 7 6 1 3 4 4 8 2 3 9 9 12 14 4 12 5 15 12 15 12 8 9 10 8 11 11 13 4 9 11 8 7 6 5 4 4
13 11 9 7 7 9 7 10 8 3 5 5 2 4 5 6 3 5 6 10 11 14 11 4 5 8 10 9 12 10 8 3 6 4 7 7 6 4 7 6 7 7 8 6 6
14 15 14 10 10 10 7 9 10 4 3 4 6 3 3 9 5 6 3 6 12 12 13 9 4 3 7 7 6 10 8 7 6 5 5 6 4 4 9 8 8 11 10 11 13
13 15 19 14 13 7 7 11 7 5 4 4 4 1 2 4 5 7 5 7 8 9 8 11 5 6 7 9 12 13 8 10 9 6 7 5 5 4 9 10 11 13 14 16 18
15 16 22 18 13 11 13 14 9 8 9 6 5 5 4 6 5 11 8 6 8 9 10 11 5 6 3 5 10 11 11 11 10 6 11 8 1 5 6 7 9 15 18 21 25
19 9 19 25 23 19 12 13 12 12 11 11 11 9 9 9 11 5 9 9 9 9 8 9 7 4 4 4 5 5 9 12 12 10 11 13 12 12 14 14 17 18 20 22 23
27 15 15 6 20 25 18 14 12 12 11 11 11 10 9 7 10 10 8 8 8 10 10 9 4 7 9 9 9 8 7 11 15 15 14 12 9 9 10 12 12 18 19 20 20
31 19 18 22 21 14 15 24 20 15 15 15 11 11 8 6 8 6 11 9 7 7 8 8 2 5 4 9 10 13 14 15 15 17 18 17 18 16 13 16 16 17 17 17 18
31 29 24 14 18 20 17 15 16 19 18 17 14 10 8 10 8 6 10 9 6 6 7 5 4 1 2 7 8 12 14 16 13 13 10 11 10 14 13 13 14 14 18 21 26

GFSSW_700_spd_072.txt.gz
Wind_Speed
18 20 22 24 24 23 23 24 24 25 26 26 27 27 27 29 28 31 32 25 32 28 28 26 25 24 23 21 19 17 16 12 13 12 10 14 11 12 10 9 7 5 7 11 13
20 22 25 25 24 24 23 24 25 27 28 28 28 28 27 29 29 32 26 30 29 28 28 27 24 23 25 22 22 20 19 16 10 11 7 12 11 11 10 9 8 9 9 11 13
20 24 27 26 25 25 25 26 27 28 29 31 31 31 29 29 28 27 29 30 29 31 28 28 28 24 28 24 26 20 22 14 13 9 12 11 12 13 9 9 7 12 15 13 14
22 28 29 27 26 26 27 27 28 29 30 31 32 32 31 30 18 24 28 29 30 31 31 30 27 26 24 27 21 24 12 18 12 18 14 14 12 14 10 10 10 11 18 19 18
23 28 27 26 27 27 26 25 25 26 28 29 31 32 32 34 33 25 19 27 29 31 32 31 29 25 26 24 15 23 20 10 16 13 15 14 15 11 11 12 11 14 18 18 18
25 28 26 26 26 24 22 23 26 28 29 28 29 30 32 39 24 24 26 23 26 29 30 30 28 19 15 19 16 14 21 11 17 18 16 15 16 13 12 14 11 14 16 18 15
26 26 24 24 22 19 21 23 24 23 23 24 24 26 32 30 23 29 34 26 28 29 29 28 26 18 19 15 21 18 18 16 19 14 13 17 13 14 11 13 11 15 17 16 13
24 24 22 20 17 17 17 19 20 20 19 19 20 22 27 18 22 27 25 27 29 33 31 22 24 19 16 18 14 23 17 7 13 16 16 13 8 7 13 12 16 18 18 15 15
22 23 21 17 15 15 15 15 16 16 17 15 13 15 12 7 13 18 27 26 26 30 30 23 25 23 23 21 17 18 15 19 11 14 15 14 8 9 11 18 18 19 15 20 20
19 22 19 16 14 14 12 13 14 13 16 12 5 2 9 9 1 10 22 23 20 25 25 24 25 23 18 24 21 16 21 20 25 25 21 21 28 19 17 24 23 20 18 17 24
16 18 17 16 13 12 15 15 20 19 13 11 9 7 7 5 8 14 12 18 14 18 23 26 24 27 22 19 19 18 18 17 21 13 14 13 20 16 14 19 25 22 20 18 22
13 13 15 14 14 15 17 19 21 20 15 11 3 4 4 7 8 7 12 15 17 20 19 22 25 19 19 19 19 20 13 15 10 16 13 15 21 24 21 20 26 30 28 18 18
8 9 11 12 12 14 18 19 18 24 13 5 7 8 3 11 9 11 15 14 14 19 23 20 17 20 20 23 23 19 13 11 13 8 9 15 21 16 14 22 25 23 21 20 18
4 5 6 7 9 16 16 19 23 21 8 5 6 5 9 7 3 12 12 9 13 18 20 19 14 20 18 21 21 15 15 14 9 10 11 8 5 10 9 21 13 19 16 7 7
2 2 2 4 6 17 20 22 18 12 4 4 5 1 7 2 1 9 17 12 12 13 14 14 18 15 13 14 15 12 13 14 15 13 11 13 6 4 12 9 14 22 10 8 7
4 2 3 3 6 6 17 25 13 6 5 7 5 4 3 3 2 4 13 10 8 6 15 9 11 9 15 16 18 14 11 10 9 8 9 24 19 2 13 18 21 18 13 11 9
6 3 4 1 8 9 11 16 11 8 13 9 6 2 2 4 2 5 11 9 7 7 10 5 10 13 14 20 16 11 10 6 3 5 3 9 12 1 13 12 14 13 11 8 6
10 4 3 4 9 12 13 10 3 14 8 8 9 3 5 6 2 7 11 8 12 9 14 12 6 11 12 9 8 16 14 7 3 3 4 7 6 9 11 9 9 10 9 7 5
12 11 5 4 8 12 13 6 10 11 6 4 8 5 8 8 4 3 7 10 12 13 5 13 7 17 21 16 13 12 11 10 2 12 4 7 7 6 10 9 9 9 8 7 6
15 15 9 6 8 12 11 9 9 13 3 5 6 4 11 5 4 3 7 7 13 13 9 5 7 8 14 13 15 11 11 4 5 2 4 12 9 9 13 8 8 8 8 8 7
17 16 12 9 11 13 11 8 11 12 9 4 4 8 7 2 5 3 2 7 7 10 12 3 1 5 7 9 6 14 12 7 5 2 1 4 5 6 7 7 7 8 7 9 11
21 15 13 12 15 9 6 10 15 13 12 8 6 3 4 6 2 3 4 9 9 10 6 9 3 5 9 8 12 13 10 9 4 4 5 2 1 8 11 9 10 9 9 12 16
23 18 19 16 17 10 12 16 15 13 11 8 8 9 8 2 5 10 11 5 4 6 6 11 4 5 2 8 11 15 14 14 9 8 9 3 3 6 6 6 10 11 16 18 19
22 16 13 17 19 18 12 10 13 16 14 11 11 10 9 8 8 8 9 6 6 5 6 11 6 1 3 4 4 5 12 12 12 6 5 6 6 11 8 9 12 15 19 20 22
22 25 11 16 10 15 19 20 14 13 17 12 13 10 6 4 8 7 12 7 7 9 9 7 2 5 8 5 4 7 5 9 13 13 9 11 7 4 7 11 14 17 17 18 21
22 27 28 23 18 12 7 19 19 16 18 14 13 12 11 7 8 2 9 6 7 5 9 9 2 5 3 6 6 8 10 12 13 13 17 16 16 19 18 18 18 20 19 19 18
26 23 29 27 12 13 18 12 16 9 17 20 18 16 13 11 9 9 10 9 9 6 7 6 5 1 2 5 7 9 10 12 12 14 12 12 15 15 13 14 16 16 18 21 26

GFSSW_700_spd_075.txt.gz
Wind_Speed
12 15 19 22 22 22 21 21 22 23 24 24 24 24 24 25 24 27 26 21 27 28 27 28 26 24 24 23 21 20 17 20 14 10 12 21 19 18 15 12 11 11 8 10 11
15 19 23 24 22 21 21 22 23 25 25 26 27 26 26 27 25 23 25 26 28 26 29 27 27 26 24 23 23 23 21 21 14 10 9 24 17 10 14 13 9 10 9 11 13
17 21 27 25 22 22 23 24 25 25 26 27 28 29 29 29 27 28 25 26 28 29 30 29 27 29 29 25 24 25 24 20 12 2 10 16 17 11 12 12 10 9 11 12 13
17 24 26 24 22 22 22 23 24 25 25 27 29 30 30 31 22 19 19 22 27 30 30 32 31 29 29 29 26 26 25 22 17 14 8 15 17 16 12 11 10 8 12 13 14
18 26 26 24 24 23 21 21 22 24 26 28 31 33 32 35 28 26 19 18 23 31 31 32 32 29 28 24 25 22 28 18 4 13 20 12 16 17 12 12 11 9 11 14 15
19 26 27 25 24 21 20 20 20 21 23 26 29 31 33 39 24 26 29 29 23 28 31 33 33 28 22 24 26 23 26 22 13 13 15 15 19 17 13 10 10 11 11 13 15
19 24 27 25 22 18 17 17 19 21 23 25 26 29 31 22 24 27 26 31 31 26 31 32 27 27 16 10 20 20 14 23 25 21 15 20 18 16 9 8 10 11 14 15 15
18 22 24 24 20 17 17 18 19 20 22 23 22 25 24 12 11 16 24 25 31 27 33 29 27 27 22 21 19 21 18 23 19 20 17 20 15 17 17 15 12 10 15 15 12
16 19 21 21 17 16 17 17 19 19 19 20 20 19 5 1 4 9 18 20 26 27 34 30 31 30 20 28 22 24 21 20 17 19 23 20 20 18 18 15 5 9 18 15 16
14 16 17 17 16 16 18 19 20 18 21 20 15 16 6 4 1 5 14 19 23 25 29 29 24 29 30 31 32 22 23 21 21 20 18 21 26 25 23 20 12 11 16 20 20
13 13 13 13 15 18 20 22 21 27 21 16 16 11 13 11 4 7 12 16 19 18 32 29 25 35 34 30 25 21 19 21 25 26 20 24 24 22 27 31 24 26 18 19 23
10 9 10 11 16 20 20 21 23 25 21 15 16 12 11 4 6 12 11 16 18 19 19 22 28 30 25 23 23 22 26 24 20 23 21 13 16 18 14 20 18 18 14 22 23
12 6 7 9 14 23 20 20 21 22 17 15 14 10 4 6 8 8 7 13 16 16 23 17 24 26 25 21 24 25 24 23 21 20 16 13 17 14 16 21 24 22 21 23 26
16 9 5 6 8 15 20 26 27 20 8 13 17 9 3 7 11 5 8 13 11 16 20 17 22 25 25 26 27 31 19 15 14 16 10 14 5 5 9 17 25 28 20 13 12
15 12 7 7 7 12 19 25 26 13 5 10 14 10 0 8 6 3 8 8 3 14 18 15 19 19 29 24 23 28 18 18 11 12 9 10 7 8 10 21 24 23 11 7 9
15 11 11 6 12 14 17 20 16 6 3 12 11 13 5 7 5 11 4 11 1 4 10 7 14 15 18 18 22 18 18 21 10 10 4 19 19 10 15 19 20 16 11 12 12
16 12 12 11 12 15 18 17 8 6 14 8 10 7 10 6 7 4 3 8 1 4 5 9 12 14 21 14 20 21 20 5 1 3 6 5 17 10 21 21 19 15 16 11 7
14 14 11 13 12 12 16 10 4 10 9 12 14 6 7 5 7 4 2 5 5 2 2 6 4 9 10 21 13 19 18 7 6 5 4 9 6 9 17 17 15 11 8 8 7
14 14 9 15 15 14 13 7 8 18 9 9 24 15 4 5 5 7 4 5 8 4 1 2 2 14 15 13 15 20 19 11 2 5 4 6 8 12 15 15 14 9 6 5 6
14 13 10 15 16 14 12 11 11 18 17 15 14 13 9 3 5 7 2 3 6 5 9 4 2 13 13 13 12 14 19 8 6 2 3 5 8 6 18 17 9 5 6 6 7
15 13 12 17 17 16 15 8 11 20 20 13 11 8 5 4 7 1 6 7 7 3 7 7 3 7 11 15 17 13 13 7 6 4 4 1 3 6 7 7 4 6 6 7 9
17 14 11 14 16 14 12 15 21 20 17 14 10 7 8 9 1 1 1 4 3 4 3 3 3 4 8 9 11 13 15 14 6 4 4 1 4 8 6 8 8 6 8 11 12
16 15 13 13 16 16 16 11 8 17 17 20 13 12 8 7 4 4 9 10 5 7 7 10 7 4 3 7 13 15 13 12 13 7 5 3 3 8 11 13 12 11 12 14 17
16 11 12 12 8 9 12 18 10 9 14 18 17 13 9 6 5 7 10 5 5 6 8 9 3 1 5 2 4 11 16 18 15 10 7 4 5 13 17 16 15 15 15 19 18
16 15 16 13 7 8 8 15 19 17 17 18 21 13 11 9 6 11 9 8 5 7 7 6 5 2 3 4 4 4 5 11 17 15 9 6 2 7 8 11 13 15 20 19 20
16 16 19 21 19 21 12 10 15 16 16 20 19 16 17 16 11 11 10 7 5 3 8 10 5 6 6 5 6 9 10 11 11 14 19 16 14 11 12 12 14 17 19 22 24
18 20 24 24 18 20 18 13 13 19 15 15 19 20 18 16 12 12 13 12 7 4 5 6 7 3 2 3 6 9 12 15 16 17 15 17 16 16 12 11 13 16 19 23 25

GFSSW_700_spd_078.txt.gz
Wind_Speed
10 14 19 24 22 20 18 18 19 19 20 21 22 23 24 24 22 24 23 25 26 27 30 30 30 29 30 27 25 24 21 23 19 11 8 18 20 19 15 15 11 7 6 6 8
12 15 22 23 20 19 18 18 18 18 19 20 21 23 25 26 25 24 22 23 27 29 29 31 31 32 32 29 28 27 26 24 9 10 6 16 27 20 20 19 14 10 8 7 8
11 16 22 21 20 19 19 19 18 18 19 21 23 24 27 27 27 27 23 23 26 32 30 32 32 33 33 31 30 29 29 26 19 9 10 17 26 21 22 20 16 10 8 7 9
12 17 22 22 21 20 19 18 17 18 19 20 22 24 26 29 23 19 17 21 26 28 31 33 35 35 35 36 31 29 28 29 25 18 10 23 24 23 20 16 15 11 8 8 10
13 17 22 22 21 20 18 18 18 18 19 20 22 25 25 28 23 25 30 23 23 28 30 35 37 34 35 34 32 32 29 30 24 20 17 17 23 23 21 17 16 9 8 9 10
14 16 20 20 20 18 16 16 17 18 20 22 23 25 26 28 24 26 29 29 29 25 30 36 38 33 28 29 32 30 28 29 25 18 22 19 21 24 20 16 16 10 8 8 11
18 17 19 19 20 17 16 16 18 19 21 23 25 25 24 25 23 22 26 25 31 29 28 36 33 34 26 28 22 21 28 28 27 19 13 23 21 23 14 13 14 11 10 9 12
22 21 20 19 19 17 16 16 17 19 20 22 23 24 23 20 21 19 25 21 31 28 25 33 35 32 30 21 21 23 23 22 28 28 21 22 21 26 22 19 17 12 12 8 12
22 23 21 19 16 16 17 17 17 18 20 21 19 23 14 12 14 17 19 18 23 30 25 32 36 35 34 22 21 27 23 25 20 27 29 22 25 24 23 23 22 15 8 6 8
21 21 22 18 16 19 23 19 18 19 18 19 20 20 17 18 18 17 18 16 19 23 26 35 36 34 37 29 34 29 23 26 26 24 22 22 23 25 25 23 23 22 23 16 16
19 18 18 18 20 27 24 21 18 22 14 16 20 19 17 14 13 2 2 9 16 25 26 34 31 36 36 29 27 23 26 20 20 21 22 20 19 26 24 21 27 33 29 29 26
18 15 14 15 17 23 26 30 31 26 13 19 21 18 9 12 8 0 3 12 15 21 22 22 24 25 29 26 28 23 24 24 27 24 21 20 23 19 20 22 22 23 22 17 22
17 14 12 13 16 20 26 28 30 20 12 17 20 12 8 10 7 2 4 5 4 15 22 24 23 26 29 28 25 26 27 25 23 21 22 19 20 19 18 21 20 24 23 23 22
15 13 11 12 15 19 24 25 25 17 6 16 20 16 11 12 8 4 7 6 4 16 21 22 23 24 29 28 27 30 30 26 18 21 18 19 5 15 16 18 23 22 24 26 25
15 13 10 12 14 20 23 22 16 14 5 16 17 18 13 12 5 5 4 7 4 8 16 16 20 24 28 30 25 27 20 22 21 25 19 18 7 15 18 19 21 20 21 22 22
13 15 10 11 13 16 19 16 12 9 5 13 23 15 13 9 9 6 8 4 11 6 12 19 15 20 24 27 25 21 18 21 19 21 5 14 21 10 19 18 15 18 18 17 15
12 12 10 12 13 12 17 16 8 7 16 15 30 12 10 12 8 7 6 2 12 5 7 13 9 16 12 22 25 25 25 6 3 4 5 12 16 23 14 13 15 14 14 14 15
12 11 9 11 12 12 15 17 4 15 20 17 20 11 9 9 6 10 7 3 8 5 4 3 3 5 11 12 21 25 26 10 6 5 4 8 10 9 26 19 17 17 16 13 10
12 10 11 13 9 12 13 13 7 16 24 20 26 16 5 8 10 12 3 0 3 5 5 4 8 11 12 17 16 19 15 13 3 2 3 6 9 9 18 23 20 17 15 11 9
10 8 12 11 11 12 12 10 8 18 25 23 16 11 14 15 13 8 7 5 4 3 4 4 3 8 8 9 18 12 16 7 5 3 3 4 7 11 18 24 20 14 12 11 10
10 8 9 11 10 11 12 8 8 12 19 17 18 12 14 15 10 6 8 5 5 1 5 2 5 3 7 11 12 10 17 10 6 4 4 2 6 12 14 11 10 10 10 9 9
8 7 8 9 10 8 10 12 13 10 9 14 15 15 12 14 12 6 7 10 4 1 2 2 6 5 8 8 13 16 11 14 6 4 4 1 4 6 7 8 9 7 7 8 11
9 8 9 7 9 8 11 11 8 8 8 13 15 17 14 13 9 8 10 14 9 4 3 5 3 3 2 6 12 13 14 15 19 12 6 3 4 7 10 11 11 8 9 11 12
10 5 8 9 10 12 11 10 13 11 10 12 14 16 14 13 8 10 15 12 11 8 5 5 7 5 6 3 4 11 15 14 13 10 12 10 11 12 12 12 10 10 12 13 17
11 8 11 7 6 6 6 8 9 12 14 11 16 16 15 18 17 11 14 13 9 7 9 8 7 7 6 3 3 2 5 17 21 20 14 14 11 8 7 9 9 11 15 18 18
12 10 12 13 16 17 16 16 13 13 12 10 15 14 16 20 18 16 14 13 9 6 8 11 6 8 9 8 10 12 11 10 13 14 18 14 13 11 8 11 14 16 16 18 21
16 16 15 15 14 18 15 19 18 18 15 9 13 16 16 17 16 14 13 13 12 10 6 9 10 7 4 6 6 10 13 16 16 16 14 19 19 19 17 14 13 14 16 20 23

GFSSW_700_spd_084.txt.gz
Wind_Speed
15 16 19 24 26 26 24 23 22 21 20 18 17 16 15 15 15 16 16 17 20 23 25 28 34 35 34 33 31 30 30 31 28 23 21 14 14 17 16 16 13 9 7 5 1
13 14 17 22 25 26 26 25 22 20 19 19 18 16 15 14 15 16 17 17 18 21 22 27 31 36 36 35 33 34 37 35 29 25 22 21 16 20 20 20 18 14 10 7 3
14 16 19 21 24 26 26 26 24 23 21 19 19 17 18 18 19 14 10 11 15 20 22 24 30 33 39 37 37 38 41 34 31 27 24 22 18 25 25 24 14 9 8 8 7
13 15 17 19 21 23 24 23 23 24 24 22 21 19 19 18 16 16 20 18 16 19 21 25 29 34 38 40 38 38 38 34 32 30 22 27 20 23 29 26 16 14 13 11 10
15 17 18 18 19 21 23 24 25 25 23 22 21 20 18 16 18 21 20 18 18 19 21 23 29 33 37 39 37 39 37 34 33 32 30 21 17 20 23 26 25 18 19 17 12
17 17 18 19 18 20 24 27 28 25 23 23 24 22 20 21 16 18 19 18 20 21 21 25 27 31 34 38 37 37 34 34 34 34 31 28 23 20 23 23 26 23 17 18 13
15 16 18 18 19 20 23 26 26 24 25 27 25 23 23 17 15 17 17 17 19 22 23 24 26 28 35 33 35 34 25 32 36 35 32 30 30 26 26 25 28 22 18 19 16
14 15 16 17 17 17 21 24 25 28 26 21 19 21 18 20 20 19 20 18 20 20 22 23 28 25 32 32 23 31 30 27 37 31 25 25 35 29 23 27 28 23 20 21 19
14 15 15 15 15 15 19 25 27 28 18 17 14 23 17 19 20 22 21 20 21 21 18 21 27 25 29 28 26 27 29 40 31 33 29 25 24 26 30 25 27 24 21 22 20
15 15 14 13 14 15 18 23 25 23 13 17 17 16 16 17 21 22 21 23 25 23 19 20 25 25 27 33 29 25 32 22 32 30 32 28 29 25 25 26 24 27 23 23 20
13 16 15 13 12 13 16 21 24 28 9 19 25 16 15 15 18 17 19 22 21 17 14 16 22 27 25 34 21 24 24 19 20 22 26 30 27 28 25 29 28 25 26 26 25
12 13 15 13 11 13 17 21 22 26 9 16 28 17 16 17 18 12 17 20 18 16 11 17 22 23 18 29 30 14 16 22 18 20 22 24 26 26 22 19 24 25 23 25 25
12 12 13 13 12 11 15 20 21 25 9 17 27 27 17 18 19 12 18 17 17 16 11 17 16 16 14 24 27 28 23 24 22 18 18 20 22 23 21 19 20 21 25 28 28
12 12 12 12 11 10 12 18 21 25 7 18 26 21 19 18 14 19 15 14 14 17 15 10 12 13 17 19 27 26 27 18 17 19 17 14 6 21 23 24 24 24 28 30 29
11 13 11 10 11 10 11 16 18 18 6 20 29 25 14 15 16 15 14 16 16 15 16 8 9 12 18 20 24 27 24 22 21 19 17 15 9 21 23 23 25 29 30 27 26
11 11 12 10 10 9 10 14 12 8 4 18 20 16 15 17 15 17 14 11 16 14 10 7 5 13 14 16 21 24 20 17 16 14 5 18 16 13 20 22 21 25 25 26 23
13 11 11 10 8 8 8 11 4 3 15 18 23 16 15 21 19 19 8 12 20 13 9 3 8 5 10 15 18 22 15 2 2 2 5 6 15 25 10 14 16 16 16 16 16
14 11 11 10 9 7 7 8 3 6 13 20 21 18 19 25 14 15 11 10 10 12 11 8 0 3 7 9 13 19 19 5 5 4 4 9 9 15 18 26 25 16 15 15 14
15 12 12 10 9 7 7 5 4 6 12 17 18 20 23 23 20 17 15 14 7 15 11 18 5 3 5 8 9 13 19 15 0 2 0 6 10 9 12 17 19 20 16 14 13
16 13 12 11 10 9 8 8 6 7 11 13 15 14 22 25 21 15 14 11 15 9 13 8 10 8 4 8 7 5 15 11 4 2 2 3 6 15 10 22 15 14 18 14 12
16 14 13 12 11 10 9 8 10 8 10 10 11 15 21 25 24 17 14 15 21 11 10 7 6 5 2 3 4 7 13 5 7 2 2 2 2 2 9 11 9 10 14 14 12
15 15 12 12 12 10 10 10 10 9 9 7 8 12 17 22 19 14 18 13 20 20 10 5 5 4 3 1 1 6 7 8 8 8 8 2 6 7 4 4 9 10 11 11 10
17 14 14 13 13 13 12 11 9 7 8 8 9 11 15 17 15 21 20 18 19 19 9 7 3 2 7 1 8 7 11 12 15 16 6 4 3 3 6 7 6 10 11 9 10
18 12 14 12 13 15 15 12 9 7 7 8 11 10 13 14 14 19 19 21 18 16 9 6 7 5 2 0 2 7 12 15 14 11 10 15 19 18 14 9 8 9 13 12 11
19 16 12 11 10 11 13 11 10 10 7 7 5 6 8 15 19 16 23 23 18 8 11 8 6 7 5 4 4 5 5 9 17 17 12 15 14 10 11 9 9 9 11 12 12
20 17 14 13 11 14 16 18 18 20 17 11 10 9 9 13 15 22 24 23 20 13 15 10 7 11 11 8 11 14 12 13 13 15 20 20 20 13 8 7 9 11 13 12 12
23 18 17 16 13 13 14 15 19 21 15 14 15 15 14 15 17 19 21 22 20 19 14 9 7 8 4 8 10 9 6 11 16 16 14 15 11 11 11 12 11 12 12 13 13

GFSSW_700_spd_087.txt.gz
Wind_Speed
11 12 13 15 17 18 20 21 22 22 20 20 19 19 17 15 16 14 13 13 15 16 18 23 28 32 32 33 33 32 32 30 31 27 22 21 18 18 20 17 14 13 10 8 4
13 14 16 18 19 19 20 20 20 20 21 19 18 18 18 17 16 14 14 13 14 16 18 20 25 29 33 34 35 35 40 39 32 28 25 22 20 17 21 20 19 16 13 10 7
13 16 18 20 21 22 22 22 22 22 22 19 18 18 18 19 19 15 8 9 10 13 16 19 22 28 32 34 37 40 45 38 34 29 27 25 22 23 24 24 20 11 14 13 10
15 15 16 18 19 21 22 22 23 24 21 19 17 17 17 18 16 15 18 17 15 15 15 18 22 25 32 34 36 40 42 38 35 32 30 28 26 25 24 26 21 22 17 12 12
12 13 15 16 17 19 21 22 24 24 22 18 18 18 15 15 17 17 17 17 16 17 16 17 21 24 30 34 33 40 41 38 35 34 33 27 24 28 30 24 27 24 25 18 14
12 14 15 16 17 19 21 24 25 25 26 23 18 16 16 16 14 14 14 17 20 19 19 19 20 23 29 32 35 30 38 39 35 35 35 32 29 24 26 25 29 31 25 20 19
13 14 14 15 15 17 20 22 25 26 27 22 18 16 17 13 14 15 13 14 18 21 21 22 22 23 28 27 33 36 30 25 39 36 33 32 32 35 25 21 23 26 24 20 22
12 14 15 15 14 15 18 22 25 27 25 19 18 19 10 14 17 19 17 15 14 15 18 22 24 24 28 26 22 24 32 30 34 35 32 32 37 30 29 22 22 23 26 23 23
11 11 14 15 14 14 16 19 23 25 19 17 22 19 11 15 18 19 18 17 20 18 19 18 23 24 24 25 22 24 27 33 24 34 26 27 27 28 31 27 26 25 27 25 24
11 11 12 13 13 12 14 17 18 23 11 14 25 19 17 16 16 21 17 18 21 18 20 16 19 23 24 23 24 20 24 23 31 26 33 26 21 17 23 28 29 27 26 26 23
12 12 12 11 12 11 12 15 19 23 10 18 29 27 15 15 13 19 18 20 22 21 21 18 16 26 27 24 24 18 21 24 23 27 29 29 31 25 26 26 23 25 23 23 22
14 13 13 12 12 12 13 16 19 23 13 14 28 22 17 15 15 13 18 22 21 21 20 20 25 20 18 19 19 28 20 20 18 22 25 28 27 28 29 28 25 21 23 22 23
14 14 13 13 12 12 12 14 18 21 9 15 25 21 19 17 14 20 22 19 19 23 17 23 25 13 18 18 20 33 25 21 21 16 20 21 24 26 25 21 21 22 24 28 28
15 14 14 12 13 11 11 13 16 17 5 14 24 22 21 22 17 17 20 19 20 21 25 16 13 16 20 21 20 29 26 17 17 24 14 18 6 22 22 22 22 21 21 23 21
14 14 14 13 13 12 11 12 14 10 4 12 20 21 17 19 20 21 21 18 19 29 20 14 13 10 13 17 16 24 29 16 15 13 15 11 6 17 19 20 21 22 23 24 22
16 14 15 14 13 12 11 11 13 5 3 12 17 17 22 17 15 19 21 15 25 22 13 14 8 5 7 10 14 20 17 12 13 12 6 16 13 11 18 21 22 21 24 25 24
16 16 15 15 13 12 12 10 5 1 10 11 17 16 18 20 15 22 19 22 17 24 22 7 3 2 5 8 10 16 15 0 3 4 3 8 12 19 7 8 17 19 16 17 17
15 17 16 15 14 12 11 9 3 3 8 13 15 15 21 26 18 18 19 16 14 16 15 13 4 4 1 7 9 13 17 4 3 4 4 11 6 8 14 22 12 10 11 13 15
14 17 16 15 13 12 11 6 4 5 8 14 14 14 20 24 21 22 17 15 18 17 12 13 8 6 1 5 8 9 11 9 2 2 1 3 7 13 5 13 15 18 16 15 16
16 17 17 14 14 12 10 9 8 8 10 12 10 10 16 20 19 19 21 15 24 21 13 17 7 14 4 5 6 6 12 6 4 1 1 2 5 12 6 8 13 9 11 15 15
16 18 17 14 13 12 12 10 10 10 12 8 10 10 14 20 18 18 20 17 23 24 17 11 7 14 2 5 4 4 7 5 8 1 1 3 2 7 4 7 6 7 12 15 14
19 17 16 16 14 11 11 12 11 9 8 9 9 9 13 16 15 13 16 21 23 21 14 6 7 4 15 6 5 2 1 6 3 4 5 2 6 10 5 7 4 5 11 13 13
18 19 16 13 14 12 13 12 13 11 8 6 6 9 12 14 11 14 15 19 21 19 14 9 4 2 3 12 2 7 9 8 5 4 9 4 4 6 5 7 6 4 9 10 11
20 15 18 17 14 13 13 15 13 12 9 8 8 9 10 11 11 14 17 19 21 11 14 13 6 7 5 5 4 2 10 10 9 5 9 17 17 15 12 6 4 3 8 11 11
23 19 14 14 16 15 13 12 9 11 9 9 9 10 11 13 16 9 19 21 19 14 13 16 8 10 7 8 7 6 5 8 12 15 12 14 14 9 10 8 6 8 10 10 10
23 20 17 17 15 14 14 15 15 17 19 18 18 16 13 14 15 20 22 19 20 17 17 13 7 14 12 5 8 10 9 11 12 13 14 16 15 7 4 3 6 8 11 11 10
23 21 18 21 19 17 15 14 16 17 14 14 14 20 18 16 17 17 19 19 19 19 15 9 8 13 4 8 9 4 5 4 7 12 12 10 7 6 6 6 8 10 11 12 12

GFSSW_700_spd_093.txt.gz
Wind_Speed
10 10 11 12 14 15 16 17 19 20 20 20 20 20 18 16 13 13 13 12 12 13 15 17 20 23 26 31 32 29 24 32 29 25 24 17 13 16 14 15 18 15 10 15 15
9 10 11 11 12 13 15 17 20 20 20 19 20 20 19 17 14 14 14 13 12 12 13 14 18 19 24 28 31 33 28 34 24 23 24 21 20 16 20 20 22 18 21 19 14
9 10 12 13 14 15 17 19 20 21 21 20 20 19 18 15 13 8 8 9 11 12 12 11 14 18 21 24 25 24 39 25 25 24 24 22 21 16 18 17 21 21 21 21 18
9 10 12 13 15 15 16 18 20 20 20 21 20 18 16 13 3 12 11 11 12 12 12 13 13 14 18 22 20 27 27 25 29 22 24 25 20 22 21 17 17 26 17 24 20
9 10 11 11 13 14 16 18 20 21 21 22 21 18 15 8 8 10 10 9 9 10 11 12 12 14 14 12 16 24 25 26 25 28 26 23 24 25 24 20 27 30 22 26 24
10 11 12 13 14 15 16 18 20 21 22 21 17 19 13 4 9 10 10 10 10 9 10 10 13 16 19 19 20 14 14 21 26 27 25 30 29 25 27 24 25 30 25 27 24
11 12 13 14 15 16 17 18 18 19 22 19 18 23 5 7 10 10 12 13 12 12 11 12 13 14 14 15 14 18 24 25 29 24 32 22 31 38 28 21 24 29 26 25 28
11 13 15 15 16 16 16 16 17 19 22 19 23 12 6 14 12 11 14 14 13 14 14 14 15 16 17 18 21 21 22 27 24 26 25 27 44 32 28 27 22 25 22 25 31
14 14 15 15 16 17 16 16 16 18 18 17 18 11 8 12 11 12 14 16 19 18 17 19 19 18 16 14 17 17 25 25 25 23 24 28 44 30 24 31 29 24 27 23 26
15 15 15 15 15 17 17 16 15 15 11 14 18 8 14 12 13 12 15 17 19 18 18 17 15 12 13 13 20 20 23 25 24 23 23 31 34 28 26 26 27 25 24 25 24
16 17 16 16 15 16 16 16 16 16 11 14 14 15 14 14 12 13 19 23 21 14 12 15 16 17 18 19 23 24 26 29 27 21 28 32 30 28 27 27 27 25 24 29 21
16 17 17 16 15 16 16 15 13 16 9 13 15 17 16 14 14 15 20 20 14 14 16 18 25 23 21 18 23 23 25 28 27 24 25 30 32 29 31 30 28 29 26 26 24
16 16 16 16 15 15 15 15 15 15 11 7 14 15 19 16 12 14 17 17 13 13 17 26 20 15 14 16 19 21 22 24 24 22 27 26 33 30 32 25 22 22 23 25 25
15 16 16 16 15 15 14 14 14 14 4 3 12 13 18 15 9 14 19 20 12 19 22 13 9 17 17 18 17 21 18 20 21 22 27 26 23 32 31 31 26 24 25 25 29
14 16 17 16 16 15 16 14 13 11 4 4 10 13 16 17 16 17 18 19 16 20 16 25 19 15 14 14 14 20 18 17 20 24 26 26 28 29 33 35 26 27 27 28 27
14 15 18 17 16 15 14 14 12 2 1 3 9 12 13 13 10 17 16 21 22 21 18 24 9 9 14 17 15 14 14 14 16 23 18 35 18 32 33 31 30 26 24 24 26
15 15 16 18 16 14 13 12 6 4 5 3 9 13 11 14 9 14 16 16 16 22 27 17 8 14 13 17 7 6 9 4 5 5 6 17 17 6 15 16 19 23 22 25 22
14 16 18 16 15 13 10 8 6 4 7 10 12 15 8 14 12 17 16 16 16 19 22 12 9 16 21 10 10 9 7 5 4 2 4 5 9 15 7 9 19 19 24 22 20
14 14 15 14 14 12 9 4 8 6 8 15 17 8 6 11 15 17 15 10 17 18 15 11 8 14 15 10 6 7 6 12 15 12 4 8 6 5 3 6 14 13 18 18 19
14 14 13 14 13 12 7 7 7 14 15 13 10 7 11 15 14 18 13 12 19 18 15 11 13 18 7 9 8 5 2 3 6 3 2 11 26 10 9 2 6 13 18 15 11
14 14 13 16 14 13 5 7 15 15 14 8 7 13 13 14 13 16 10 14 19 23 14 11 8 15 11 9 8 7 5 6 10 3 4 4 11 13 13 5 4 8 13 13 14
14 13 17 15 12 8 5 12 14 14 15 13 14 12 10 12 14 11 12 11 20 23 14 10 9 15 9 7 5 7 8 10 6 11 10 3 8 13 18 13 6 3 6 9 11
16 16 12 16 5 8 12 13 13 14 11 10 7 12 14 12 10 8 10 16 20 21 13 20 7 16 1 1 8 9 9 7 7 5 9 6 4 10 14 11 6 3 3 6 9
17 11 18 8 9 9 11 10 8 11 10 11 13 13 12 11 10 11 18 12 23 16 14 20 10 12 16 15 13 12 11 7 6 6 7 4 6 5 12 10 6 3 1 5 7
18 17 12 7 8 13 16 15 13 10 13 12 10 14 14 12 16 14 12 18 15 13 13 16 13 13 16 16 10 9 9 6 8 8 5 10 11 10 9 7 4 2 3 4 6
23 19 17 18 14 11 13 11 15 14 13 7 12 12 16 17 17 24 20 17 14 15 21 13 10 17 15 7 6 7 6 7 9 10 9 8 5 4 6 4 4 2 4 5 6
24 21 20 18 20 15 11 14 20 21 18 14 13 18 18 19 22 24 23 21 23 24 23 14 9 12 5 6 6 2 10 4 5 6 6 5 4 5 6 5 4 3 4 5 6

GFSSW_700_spd_096.txt.gz
Wind_Speed
7 9 10 11 12 12 13 15 18 20 21 22 22 21 20 19 17 17 15 16 14 12 13 14 14 15 20 25 28 24 29 33 33 25 25 22 24 14 16 11 19 12 11 13 14
8 8 9 10 10 12 13 16 18 20 21 21 20 20 19 18 16 15 13 13 14 11 9 10 14 14 18 21 27 31 34 40 23 22 25 28 26 23 19 14 16 15 16 18 12
8 10 10 11 12 13 14 16 17 19 20 20 20 20 18 16 16 11 13 14 14 14 13 11 10 13 15 17 19 28 38 33 22 26 26 27 30 17 25 8 15 19 22 22 15
9 10 11 12 13 13 14 15 17 19 20 21 21 18 18 14 5 13 13 13 12 12 13 9 9 11 12 15 17 26 27 24 25 28 26 27 30 29 19 21 16 18 24 22 18
9 11 12 13 14 14 15 16 18 20 20 22 22 20 21 11 11 12 13 12 11 9 9 9 7 9 10 7 11 23 23 24 25 26 30 31 32 34 24 15 25 20 21 16 17
11 12 13 14 15 15 15 16 17 19 20 21 23 24 11 6 12 13 13 13 13 12 10 8 9 12 16 15 18 18 15 19 24 28 29 24 33 30 39 24 24 24 23 24 22
13 14 15 16 15 16 16 17 17 18 20 19 21 18 10 15 14 11 13 14 14 13 12 11 11 12 12 17 10 16 22 24 28 27 28 27 33 44 39 26 24 25 23 27 27
15 16 17 17 17 16 16 16 16 17 16 15 19 15 12 16 14 13 14 16 15 15 15 15 15 15 16 16 17 22 22 26 24 19 20 21 45 38 29 26 28 23 22 22 26
16 17 17 18 18 17 17 16 14 14 12 11 18 10 10 17 19 15 15 17 18 19 13 13 15 12 11 13 18 12 23 21 22 17 20 26 38 32 28 24 31 32 32 28 29
17 17 18 18 18 17 16 16 13 9 8 10 15 9 14 14 13 12 16 17 15 15 17 17 15 15 17 18 18 20 23 25 25 18 18 25 36 27 24 29 33 30 31 23 27
17 18 19 18 18 17 15 15 12 9 8 11 12 14 17 13 13 15 22 18 20 19 18 17 21 19 22 22 24 21 22 27 29 27 26 26 26 28 25 28 34 28 39 31 32
17 17 18 18 17 17 16 15 14 15 11 5 12 14 17 15 15 10 18 20 15 15 17 20 24 18 18 19 19 21 26 27 28 23 23 28 31 28 27 30 29 27 30 34 30
16 17 18 18 18 16 15 15 14 15 15 4 10 12 14 17 11 15 19 21 11 16 23 17 15 11 19 20 19 21 24 25 26 23 24 24 30 27 29 28 31 31 29 29 25
14 17 18 20 18 17 15 14 13 13 6 2 8 10 16 20 11 18 19 20 18 19 21 13 22 23 15 16 17 20 17 21 22 21 18 20 19 30 27 31 34 33 35 31 28
14 17 18 19 19 17 16 13 11 9 3 1 7 11 16 15 19 16 26 22 22 22 24 23 22 11 12 16 20 24 22 21 18 23 23 26 21 28 30 34 38 30 32 35 30
14 16 18 19 15 16 15 13 9 2 2 3 6 11 13 9 13 17 17 17 20 23 20 25 15 10 18 23 17 18 17 17 20 17 15 25 16 15 21 27 36 30 28 28 28
15 16 17 19 17 16 13 11 4 3 4 3 10 15 15 10 12 13 17 13 19 24 27 19 14 13 12 24 12 13 8 7 4 2 5 7 11 27 9 7 29 41 30 32 33
13 15 17 18 18 15 12 7 2 4 3 9 15 14 11 11 12 17 19 11 16 23 25 21 19 21 18 16 15 15 9 2 4 2 3 9 8 7 3 6 12 31 39 36 26
13 13 15 16 19 15 10 3 7 7 10 19 16 8 8 13 17 17 16 10 17 26 17 17 14 20 15 12 11 13 12 15 5 10 4 6 6 2 10 3 9 21 23 28 22
13 13 14 17 18 14 8 4 7 14 18 12 7 7 13 17 14 16 13 12 20 24 18 10 18 9 21 12 13 14 14 10 7 4 5 7 22 16 12 8 4 7 10 13 14
15 14 13 16 18 9 2 7 14 16 15 8 7 12 12 14 14 15 7 15 16 24 19 17 10 21 15 8 12 13 15 12 15 9 3 3 12 16 14 7 7 10 14 13 11
16 14 12 14 14 8 7 12 19 16 11 12 8 7 7 10 12 13 10 11 23 23 21 12 12 18 10 6 14 16 16 13 8 6 12 4 14 20 12 7 9 6 5 6 7
19 18 12 13 8 6 9 13 17 11 9 7 8 8 11 11 9 8 10 20 20 23 18 22 9 15 14 8 17 19 16 11 11 8 19 5 6 14 17 15 12 8 6 6 6
19 14 16 12 8 8 8 8 9 16 16 11 12 12 10 10 8 11 18 11 18 18 17 18 13 14 18 23 23 18 14 10 8 6 7 8 13 3 13 13 9 7 5 4 5
21 19 18 7 4 12 12 12 11 10 14 13 10 10 13 13 15 13 11 19 19 11 11 17 17 13 18 17 13 10 11 8 6 6 3 8 5 8 8 2 5 3 2 2 2
25 25 23 18 21 17 13 9 10 12 14 13 11 15 18 18 15 24 22 20 20 11 16 16 13 19 22 7 9 10 8 7 5 3 2 3 1 6 6 5 5 3 1 1 1
28 27 23 23 20 18 11 11 13 21 19 15 18 19 20 22 19 21 23 22 22 20 15 15 8 14 7 9 12 4 9 4 4 6 4 1 4 4 4 3 2 1 1 2 3

GFSSW_700_spd_102.txt.gz
Wind_Speed
7 8 9 10 10 11 13 14 15 17 20 21 21 22 22 20 18 17 15 14 13 11 9 9 9 11 16 20 24 28 33 39 38 33 30 20 22 19 17 12 16 10 26 26 21
7 8 9 10 11 12 13 14 16 18 19 19 20 21 22 19 15 12 13 13 13 12 11 10 8 8 12 17 23 28 35 37 37 31 29 29 27 24 18 14 14 12 28 25 22
6 7 9 10 11 13 14 15 15 16 18 19 20 21 18 15 10 13 13 14 13 12 12 10 11 12 9 13 18 26 35 33 33 28 25 28 28 24 19 17 14 9 16 23 31
9 10 11 12 13 13 14 15 15 16 18 19 19 18 16 14 9 12 13 14 14 14 11 11 11 10 9 11 14 23 27 28 30 28 28 31 29 28 20 16 11 11 11 21 20
10 10 12 13 14 14 14 15 15 15 16 15 17 16 16 13 14 15 14 14 13 13 11 9 10 10 9 9 13 20 22 22 23 24 25 26 30 30 28 17 14 18 14 21 27
10 12 14 14 15 14 14 13 14 14 14 13 16 15 16 11 13 13 14 15 16 15 15 12 10 11 12 9 12 17 21 22 23 25 27 28 27 29 24 13 15 16 16 17 23
12 14 15 16 16 14 13 12 13 12 11 11 15 15 14 13 13 15 16 16 14 13 12 12 14 14 14 10 9 14 21 18 12 12 18 22 28 29 30 27 22 20 20 18 24
13 14 16 16 16 15 14 12 12 11 9 10 13 12 14 14 14 15 17 17 17 11 14 15 16 14 17 18 18 17 11 20 13 13 11 13 26 17 12 18 23 25 27 24 21
14 15 15 16 17 16 14 12 11 9 7 8 11 10 15 15 14 15 16 21 15 13 14 15 17 14 17 19 21 18 22 25 25 16 19 19 25 20 14 15 15 26 29 30 26
15 15 15 16 17 16 14 12 11 8 6 5 9 6 14 12 17 17 14 23 23 19 17 24 20 15 16 15 17 22 24 26 28 26 25 29 33 25 21 21 22 18 25 33 31
14 14 17 19 18 15 13 11 9 3 4 2 5 9 11 11 15 19 18 21 25 26 27 22 16 16 16 16 18 25 25 28 26 24 24 28 35 31 28 23 25 26 21 31 34
12 15 18 19 18 16 14 13 10 7 5 7 8 8 11 12 13 18 21 25 25 25 30 21 11 23 21 21 21 17 21 26 29 24 22 26 31 25 24 31 24 28 25 27 32
12 15 19 20 20 15 14 13 11 9 4 7 6 8 15 14 13 18 23 28 25 25 29 17 13 23 25 15 15 20 24 23 26 26 25 26 36 32 29 27 31 25 27 25 25
12 15 18 20 22 20 15 13 11 9 4 4 7 9 20 16 12 18 20 24 19 22 28 19 23 19 23 19 21 28 21 24 28 26 18 16 20 34 26 21 28 28 26 24 24
11 15 15 18 21 22 17 11 9 5 4 5 9 14 22 10 13 19 17 22 18 20 27 26 17 18 21 22 20 27 25 28 33 26 23 22 12 23 18 17 15 27 27 25 22
11 12 13 15 18 21 16 9 4 4 4 3 8 18 11 6 9 15 19 19 14 25 27 15 14 13 18 25 26 27 26 36 10 6 3 12 10 5 9 8 13 18 27 25 19
11 11 12 14 17 18 15 10 3 5 2 5 13 21 9 5 7 15 17 16 20 27 31 21 16 18 20 29 29 27 31 7 5 5 3 10 8 6 11 12 13 19 23 26 22
11 11 11 11 15 16 13 9 4 2 7 12 17 12 5 12 11 18 14 11 17 22 23 17 11 18 20 23 24 20 23 7 3 5 5 14 7 7 7 10 12 9 14 19 24
12 11 12 11 12 13 10 5 5 8 12 18 15 5 8 11 16 14 12 9 15 21 24 11 14 16 15 17 24 21 20 15 3 5 5 14 17 31 18 10 4 12 15 16 25
15 12 12 12 12 12 8 6 6 10 14 14 10 6 10 16 10 14 7 7 13 19 24 13 16 11 11 10 25 20 18 11 7 5 5 10 12 14 16 21 3 7 8 19 24
17 15 13 12 12 11 6 5 8 13 12 7 9 9 8 10 11 11 3 8 14 23 22 21 11 20 11 8 13 20 18 11 9 5 3 4 6 16 21 16 12 7 4 14 13
19 17 14 13 12 11 10 9 8 10 11 7 8 7 10 11 12 6 3 9 16 22 20 19 9 22 11 1 8 14 17 14 8 8 2 1 6 14 19 16 14 6 8 10 8
22 19 18 16 14 13 14 13 12 11 12 7 6 10 12 13 8 5 8 15 18 18 20 21 8 14 9 3 7 17 16 14 11 5 9 4 4 14 13 17 13 10 12 14 12
23 20 21 19 16 16 15 15 12 12 14 9 10 12 10 12 12 9 14 14 16 22 20 14 9 9 9 17 17 15 13 11 7 4 8 6 4 9 12 14 12 10 11 10 8
27 26 25 15 13 12 12 14 12 14 13 13 13 17 18 17 21 22 14 19 15 10 13 12 12 13 15 6 8 10 9 8 6 5 3 3 5 8 8 11 8 9 9 9 8
30 29 27 24 20 20 20 20 16 15 17 16 16 18 22 22 24 29 22 18 17 14 11 17 11 18 10 2 11 9 4 7 3 4 4 3 4 6 8 8 8 8 7 8 8
33 31 29 27 25 25 25 20 21 17 17 16 18 22 25 23 21 20 19 18 20 21 17 15 8 10 3 9 1 3 5 4 6 5 2 3 4 6 6 5 5 5 5 5 5

GFSSW_700_spd_105.txt.gz
Wind_Speed
4 5 6 7 9 10 11 12 14 16 17 19 19 20 20 19 17 14 13 13 12 11 10 10 10 10 11 16 21 25 29 36 34 28 29 21 19 19 15 10 11 10 14 20 23
5 6 8 9 9 11 13 14 15 15 15 18 19 19 18 17 13 12 13 12 12 12 11 10 9 9 10 13 19 23 31 32 32 24 24 29 28 27 25 20 14 11 17 22 20
6 8 9 10 12 13 13 14 14 15 16 17 17 17 17 15 9 15 13 14 13 12 12 12 9 9 10 12 15 23 30 28 28 25 20 25 31 29 27 25 17 11 15 22 20
8 9 10 11 13 13 14 14 14 14 14 14 15 15 16 16 9 14 15 16 16 16 15 13 9 8 9 11 14 19 22 25 28 28 30 30 31 32 28 27 16 13 16 16 23
9 10 11 13 14 14 13 13 13 12 12 13 14 15 16 14 14 13 15 15 15 15 14 12 10 10 8 9 12 16 18 20 20 22 24 26 27 30 32 28 18 17 18 17 21
10 12 13 14 14 15 14 13 13 11 11 11 12 14 14 11 13 13 14 16 16 14 13 10 11 9 9 10 10 12 15 16 15 15 20 25 24 24 27 13 19 22 19 19 21
11 13 15 15 15 15 13 12 11 9 8 8 10 11 12 12 12 15 19 20 16 14 13 12 11 11 11 10 15 16 18 12 5 5 9 12 20 24 22 17 19 18 21 20 21
13 14 15 15 15 15 12 10 9 7 6 5 7 8 12 14 15 14 20 22 19 16 15 16 15 12 14 16 18 15 9 19 15 15 12 13 21 14 8 12 18 26 26 23 23
13 14 14 14 15 13 12 9 8 5 3 4 6 6 11 13 15 13 15 20 22 25 24 16 14 14 16 18 20 15 21 24 21 17 18 17 24 22 14 17 20 23 28 26 27
11 12 16 16 16 14 11 8 6 3 2 2 6 3 9 9 14 13 14 19 21 23 29 22 12 20 19 19 18 22 27 27 28 26 21 23 27 25 25 24 22 22 28 31 30
9 14 17 19 18 13 10 8 6 2 2 2 4 7 8 9 11 13 16 18 20 23 31 26 14 21 18 15 18 22 25 26 26 23 26 27 29 24 21 29 28 25 26 27 33
9 12 16 19 20 17 12 8 5 3 1 7 6 8 14 11 9 13 17 21 24 24 30 23 13 19 18 18 17 19 26 25 25 24 24 28 31 28 20 22 28 29 28 29 28
8 12 14 16 20 20 12 8 5 2 7 6 7 10 19 15 11 16 17 20 24 23 28 18 16 15 18 21 23 27 23 32 33 34 33 27 24 23 18 20 23 23 32 30 29
7 10 12 15 16 21 16 10 7 2 7 3 5 9 19 14 11 15 19 20 19 23 25 12 15 15 19 23 27 32 31 33 36 30 17 23 7 21 15 8 9 18 31 31 30
9 11 11 12 15 17 17 12 8 2 3 3 6 9 12 11 10 14 22 19 19 19 22 14 15 15 23 27 25 28 32 35 25 16 12 12 4 11 12 11 12 9 20 29 28
8 9 9 10 12 14 15 11 6 2 3 3 6 16 14 8 9 13 19 18 14 20 21 9 14 13 20 24 18 28 34 8 9 10 3 11 10 7 19 14 4 4 15 26 22
10 10 9 9 10 12 12 11 3 4 6 4 11 15 6 4 9 12 17 16 17 22 26 12 7 15 18 27 25 28 32 8 7 7 6 21 3 9 18 14 11 5 12 21 19
12 11 10 9 9 10 10 8 3 6 5 10 13 7 5 10 9 14 13 8 14 18 16 16 8 15 13 17 26 25 21 6 3 5 6 18 14 12 26 15 12 5 6 10 13
14 13 12 11 9 8 10 4 2 6 10 13 8 4 4 9 11 10 10 7 12 16 17 13 11 9 14 13 22 21 20 14 3 6 4 4 16 12 27 17 16 9 6 6 9
17 15 14 12 10 10 9 6 4 6 10 10 6 4 9 11 8 12 5 5 9 15 20 16 14 12 10 7 17 17 19 9 7 5 5 10 6 18 31 23 15 9 7 9 10
20 18 16 14 11 11 10 9 9 7 9 9 9 6 7 10 12 10 1 6 8 17 20 17 13 15 10 6 14 18 20 10 6 4 2 5 6 22 23 22 19 14 2 7 9
23 21 18 16 13 11 12 11 10 9 9 8 8 7 9 11 10 8 5 8 13 18 19 14 12 19 10 3 8 12 16 17 6 2 4 4 6 21 21 18 16 15 19 7 5
27 24 23 20 17 15 14 13 13 11 8 7 7 8 11 12 8 7 9 10 17 14 16 17 6 11 5 2 6 11 15 13 10 9 3 3 10 17 17 14 13 12 13 18 15
29 25 27 25 22 19 17 15 15 13 11 9 9 9 11 12 12 10 15 13 16 19 15 8 7 9 9 14 16 15 13 10 8 5 8 5 9 13 15 13 12 10 9 10 10
33 31 30 18 18 16 15 13 10 13 15 13 12 12 13 14 19 15 16 15 17 14 7 8 12 16 13 14 10 13 13 10 8 7 3 4 6 8 12 12 10 11 11 11 11
36 35 34 30 25 23 21 21 18 17 17 16 14 15 16 17 17 21 20 15 10 10 10 19 11 16 17 7 10 14 8 9 8 9 8 6 5 6 8 9 8 7 8 9 9
40 38 36 32 29 28 29 23 19 18 16 15 14 15 18 19 18 19 17 14 15 18 19 20 10 6 5 5 10 4 5 5 5 7 6 6 7 6 6 6 6 6 6 7 7

GFSSW_700_spd_108.txt.gz
Wind_Speed
6 7 8 9 10 11 13 13 14 14 15 17 17 17 18 17 16 13 14 14 13 12 11 11 9 8 9 12 15 18 24 31 31 27 29 20 17 20 20 21 12 12 10 16 15
6 8 9 10 10 12 13 14 15 14 14 15 15 16 16 15 12 15 15 14 14 13 13 11 9 9 9 9 12 17 23 25 26 23 27 27 29 29 27 24 22 14 12 12 22
7 8 9 11 12 12 13 13 12 12 12 13 13 14 15 15 8 16 16 16 16 16 14 13 12 10 9 9 11 15 20 22 23 23 23 26 29 31 30 32 28 22 15 15 17
7 8 10 11 12 13 13 12 11 11 11 11 12 13 14 16 9 15 18 20 21 18 17 15 12 10 9 8 10 13 15 18 21 23 25 28 28 32 32 29 25 22 21 20 18
7 9 10 12 13 13 13 12 10 9 8 9 11 12 14 13 16 17 19 20 19 19 17 15 13 11 8 9 10 9 10 12 15 17 20 21 23 25 30 26 25 24 24 20 21
8 10 13 14 13 12 11 9 7 7 5 7 8 11 13 10 15 16 19 20 20 22 20 18 16 13 10 12 7 12 15 14 12 11 19 21 23 23 25 21 15 23 26 23 22
10 13 14 14 12 11 10 8 6 5 4 5 6 9 11 11 12 14 19 21 22 26 21 18 16 11 10 11 14 15 16 7 4 10 11 16 20 19 20 22 19 18 28 26 23
11 13 12 13 12 10 9 7 5 4 2 3 5 7 10 12 12 11 14 16 18 22 25 20 13 13 13 14 16 15 6 19 13 12 11 15 25 16 13 13 15 24 26 30 26
10 10 13 13 13 11 8 6 4 3 1 3 4 4 8 11 12 11 12 15 17 20 24 20 15 16 16 21 14 9 22 24 20 17 15 16 25 22 20 19 17 20 32 29 28
6 9 13 16 16 12 9 5 4 1 1 2 5 3 8 8 10 10 12 15 16 18 23 21 15 14 15 18 16 20 24 24 24 22 19 21 25 23 23 26 27 21 22 31 35
4 8 12 16 17 14 10 6 4 1 1 2 5 8 11 8 8 11 14 15 17 18 24 20 18 17 16 15 16 19 23 24 24 18 26 28 29 24 19 23 26 26 24 24 33
3 7 11 14 18 18 12 8 4 2 3 7 6 9 13 7 3 12 16 17 17 20 22 16 18 14 15 18 22 24 22 27 24 31 28 27 28 21 18 21 20 22 26 28 30
4 6 9 12 15 18 14 9 6 2 8 5 3 8 15 10 7 12 18 18 18 19 19 12 14 14 18 21 25 23 25 31 29 27 16 16 13 11 10 9 14 20 26 31 30
7 7 7 9 11 15 15 11 8 3 5 2 3 5 14 11 6 12 17 18 17 19 15 8 12 13 19 23 23 24 30 24 18 24 10 19 6 13 19 5 9 15 23 27 31
7 7 7 7 9 12 13 12 9 5 2 3 5 7 17 10 10 13 18 20 15 13 14 10 12 13 19 24 21 25 29 8 17 20 14 23 5 9 21 14 9 15 16 22 29
8 7 6 7 7 9 10 12 6 1 1 3 7 12 13 6 10 15 18 18 9 11 11 6 10 16 15 20 20 27 25 3 8 10 4 18 6 8 28 22 13 8 14 13 21
11 9 7 6 6 7 8 9 3 3 6 4 9 14 8 7 11 12 16 16 16 16 18 8 3 16 14 22 21 27 29 11 6 7 3 19 9 11 27 20 17 2 4 8 11
13 12 9 8 7 6 6 6 1 4 4 8 12 9 5 9 9 10 12 8 13 18 12 12 5 12 16 17 22 23 21 5 2 5 6 6 11 17 30 20 18 7 6 7 10
15 14 13 11 9 7 6 3 3 3 6 8 8 5 5 9 10 10 9 5 10 16 15 10 8 10 13 12 19 15 18 13 2 6 4 5 11 18 35 11 15 16 9 7 7
17 17 15 14 12 9 8 7 7 6 6 6 6 5 7 10 7 10 5 5 7 14 17 13 10 10 9 6 14 15 21 8 7 5 6 7 4 19 38 25 18 13 14 10 7
20 20 19 16 15 13 11 10 10 9 7 5 6 6 8 11 13 10 4 7 5 14 16 15 10 9 7 6 11 14 17 13 6 2 1 6 3 26 24 25 19 12 16 14 7
25 23 22 19 18 16 14 11 10 9 9 8 6 5 8 10 9 7 5 7 13 17 14 11 10 16 9 2 5 8 14 18 5 6 5 3 5 23 22 23 25 21 16 11 11
30 27 25 23 23 20 18 14 13 12 11 8 7 7 7 9 7 9 10 10 14 10 11 15 5 10 2 2 5 8 13 14 13 9 3 3 6 17 17 16 15 15 17 15 15
33 31 31 30 28 24 21 18 16 15 13 12 11 9 8 9 10 12 15 13 14 16 15 8 7 8 10 14 18 19 11 10 9 5 11 7 12 12 15 14 13 12 11 11 11
39 37 35 20 29 29 24 21 15 15 13 13 13 11 12 9 14 12 18 16 15 12 10 7 10 16 14 16 18 15 14 8 9 8 5 9 9 10 11 13 12 12 13 13 13
44 40 38 36 32 22 21 22 19 18 17 16 15 13 14 12 12 16 17 16 9 5 9 10 10 20 16 10 8 13 13 8 7 8 9 7 6 5 6 8 9 9 11 12 12
46 44 40 37 37 32 31 27 21 19 19 18 15 16 16 14 13 14 15 14 13 14 14 18 10 11 6 6 10 13 7 6 5 6 7 7 5 2 2 3 5 6 6 7 8

GFSSW_700_spd_111.txt.gz
Wind_Speed
6 7 8 9 9 9 10 11 11 11 10 12 13 14 14 14 13 14 14 15 15 15 14 12 9 9 10 10 11 12 18 22 25 21 22 18 14 20 19 19 18 17 12 11 17
5 7 8 7 8 9 10 11 10 10 11 11 11 12 11 11 9 14 15 15 15 14 12 11 10 8 9 9 10 12 17 18 20 21 22 23 24 28 25 19 23 20 11 14 16
5 6 6 6 8 9 10 10 9 9 9 9 9 10 9 11 7 15 16 16 15 15 14 13 12 10 9 8 8 10 13 14 15 19 21 22 23 23 32 33 29 26 20 16 17
5 6 7 8 9 9 10 9 8 7 6 7 8 9 10 14 6 15 16 17 17 18 18 16 14 11 8 8 9 10 10 12 14 15 18 20 22 26 28 32 24 24 30 24 22
5 7 9 10 10 10 9 8 7 6 4 5 6 8 9 10 13 14 16 17 19 20 17 16 15 13 10 10 9 7 12 13 14 13 17 20 21 22 25 23 21 22 26 29 25
6 9 11 11 10 9 8 7 6 5 3 3 5 8 9 8 12 13 15 17 19 21 20 19 17 13 9 10 8 14 16 15 15 14 16 18 18 20 19 19 15 18 26 30 28
7 9 10 12 11 9 6 5 5 4 2 2 4 7 9 9 10 11 13 15 16 19 20 18 13 14 13 9 12 12 13 8 10 12 15 19 20 18 12 10 15 20 23 30 32
6 7 10 11 9 7 4 3 3 3 1 1 2 4 8 9 9 10 12 14 15 16 19 17 13 13 12 13 9 8 6 18 13 8 10 15 25 20 16 18 14 18 25 27 35
3 7 10 12 12 9 5 3 3 1 2 2 2 2 6 8 9 10 11 12 14 14 17 15 14 13 16 16 14 13 19 20 16 12 13 14 23 17 17 22 23 18 26 28 35
3 5 8 13 14 11 7 5 3 2 2 3 4 2 6 5 7 10 12 11 13 13 15 12 14 13 15 18 13 17 20 21 20 21 16 19 27 24 20 21 22 24 24 27 32
1 4 7 11 15 15 9 5 2 2 2 4 6 6 8 7 6 10 13 13 11 13 14 10 13 15 16 16 17 20 19 21 21 15 22 21 23 22 16 23 23 21 22 27 28
1 2 5 9 13 14 11 7 3 1 5 7 4 7 11 10 3 10 14 14 12 15 13 9 11 14 17 17 17 15 18 23 19 19 13 21 17 8 12 10 16 21 22 28 32
5 4 5 6 10 13 14 8 4 1 7 5 2 5 12 12 5 11 14 18 13 13 12 7 10 9 14 19 20 17 18 25 17 18 11 25 11 12 14 8 9 14 21 23 29
6 7 7 6 6 8 10 8 6 4 2 2 3 5 11 12 3 11 15 17 13 13 12 4 10 10 13 20 23 20 27 17 8 12 11 23 4 12 24 8 6 10 17 21 22
8 7 6 6 5 5 7 8 5 5 2 5 5 8 15 10 7 9 15 16 11 10 12 7 6 12 14 19 19 25 26 6 6 8 19 22 4 5 35 24 12 10 15 15 18
11 9 7 6 6 4 5 6 2 2 2 3 7 10 13 8 9 12 14 15 7 8 10 7 5 12 15 18 18 26 21 1 4 8 6 12 11 10 30 30 19 9 8 9 9
13 11 9 6 5 6 5 5 1 2 3 4 7 11 9 7 11 10 13 13 13 11 14 8 3 13 16 19 14 23 22 7 5 7 3 13 8 13 30 17 20 13 5 1 8
15 13 12 9 7 7 6 5 4 2 2 5 9 8 8 10 8 10 11 7 10 16 10 11 3 10 12 15 16 21 19 6 1 3 7 7 13 22 37 19 17 11 8 10 11
18 16 14 12 10 8 7 6 4 4 3 5 6 5 7 9 9 9 11 5 7 14 13 8 4 6 8 10 17 12 15 12 0 2 4 5 9 15 32 15 19 15 14 15 12
21 19 16 15 13 11 10 9 8 8 6 5 4 3 6 9 7 10 6 4 6 10 15 10 8 5 7 6 11 13 19 7 7 5 5 7 6 21 35 22 18 17 16 15 14
25 23 19 17 16 15 15 13 11 10 9 5 5 5 5 9 11 8 4 7 3 11 14 12 8 7 6 4 9 11 16 11 5 2 1 5 4 26 27 24 16 14 13 14 14
30 27 24 19 19 20 19 16 13 12 10 9 8 7 5 8 8 7 7 7 11 12 11 9 9 12 8 1 3 6 12 17 5 4 3 2 4 20 15 21 17 15 13 14 14
36 31 30 24 24 24 21 18 16 14 13 10 8 8 7 6 6 7 10 12 11 13 7 13 5 8 2 1 3 6 9 14 11 6 2 2 5 15 14 11 10 16 15 15 14
39 35 36 32 31 27 25 22 21 18 15 14 13 11 9 7 8 8 10 11 13 13 11 10 8 8 8 13 17 18 11 9 8 4 9 4 7 9 10 10 12 12 12 11 15
44 43 39 23 35 33 28 24 23 24 19 16 14 13 10 9 9 7 13 14 14 11 7 6 9 14 15 19 17 16 8 8 9 7 5 9 8 6 6 7 9 11 13 13 15
50 47 42 41 35 19 35 33 31 23 20 19 15 12 13 11 10 11 12 13 11 8 6 10 8 19 19 9 8 12 9 10 7 5 6 7 5 3 2 4 7 8 10 11 13
55 51 45 39 39 36 35 26 26 23 23 20 15 16 15 10 12 12 13 14 15 14 12 14 11 11 7 9 12 12 6 8 6 4 4 5 3 2 1 1 5 6 7 8 7

GFSSW_700_spd_114.txt.gz
Wind_Speed
4 5 5 6 6 6 7 8 8 8 8 8 8 9 9 10 12 12 10 11 11 12 11 11 10 9 9 9 9 10 10 13 15 13 14 12 10 12 25 22 23 19 16 16 17
4 5 5 6 6 6 7 8 7 7 6 7 6 7 8 7 11 9 10 12 13 13 12 9 9 8 8 8 8 8 10 11 13 13 14 14 17 17 20 15 19 21 19 18 17
4 5 6 7 7 7 7 7 7 6 6 4 5 7 7 5 6 10 11 12 13 13 12 11 9 8 7 7 8 10 9 13 14 16 16 19 19 17 20 25 22 22 17 21 17
4 5 7 7 8 8 7 7 7 6 5 4 5 6 6 9 4 9 11 13 15 16 15 13 11 9 8 7 8 8 12 13 13 14 17 18 19 22 23 23 24 31 30 31 25
4 6 8 8 8 7 7 7 7 5 3 2 4 5 5 7 7 7 11 14 15 17 16 14 12 9 7 9 10 8 12 16 16 16 17 18 20 21 22 20 19 20 30 35 36
5 6 7 8 9 9 8 7 6 4 2 1 3 4 4 5 5 8 11 13 14 16 18 16 11 11 10 10 6 12 13 13 12 12 16 17 16 19 14 19 15 17 24 32 34
5 4 7 9 9 8 6 5 5 2 1 1 1 2 4 4 5 7 10 12 13 14 17 15 12 12 10 8 10 9 7 13 6 10 16 19 20 18 12 15 12 16 19 28 33
3 3 7 9 8 5 4 3 3 2 3 2 1 1 3 5 6 7 10 12 13 13 16 12 11 11 12 9 10 13 8 13 13 9 9 12 16 14 11 16 16 15 15 26 27
2 2 5 9 11 7 3 2 2 2 4 3 3 0 3 5 6 6 10 11 13 12 13 9 9 11 14 9 8 9 13 15 13 13 13 11 18 12 15 17 19 20 17 20 28
4 1 3 8 11 9 4 2 1 3 4 4 3 1 5 5 5 7 9 11 10 11 10 7 8 8 12 11 11 15 16 13 15 14 15 17 19 19 18 18 18 19 23 23 26
6 2 1 5 10 11 7 3 1 4 5 3 5 1 5 6 4 6 9 10 9 9 7 4 6 7 10 15 14 16 14 17 15 12 15 13 16 8 13 14 16 19 17 19 28
7 5 2 3 7 9 7 3 1 2 7 8 6 2 6 8 6 8 10 13 10 8 8 6 5 8 12 17 16 13 13 15 8 15 7 18 4 8 14 12 12 11 18 24 29
10 8 5 3 4 6 8 5 1 5 6 8 7 7 7 11 8 9 11 13 10 7 9 2 6 9 12 15 18 13 13 17 10 11 12 15 3 5 22 12 13 14 15 18 24
11 10 10 8 6 5 6 7 3 7 3 4 5 4 7 12 3 8 11 15 13 8 8 3 8 12 10 13 18 11 22 15 5 6 10 20 4 10 26 17 11 14 16 14 18
13 11 9 8 8 6 5 6 2 7 4 4 4 6 10 8 7 7 11 12 10 9 8 6 4 10 12 17 16 15 25 3 4 3 5 19 4 12 25 24 22 10 12 11 10
16 13 10 8 7 7 5 3 1 3 4 3 3 5 7 7 9 10 11 12 7 7 8 7 4 9 13 15 14 24 15 4 4 4 4 11 9 15 33 26 22 14 7 5 9
18 16 13 10 9 8 7 4 3 6 4 3 2 3 4 5 8 8 10 9 9 6 8 4 2 12 12 17 10 22 16 3 2 4 5 11 7 10 27 19 19 19 9 1 6
21 18 16 14 11 9 8 5 7 6 5 3 1 1 3 7 6 10 9 4 9 12 6 6 1 8 9 12 14 17 11 5 3 6 6 10 15 15 13 18 11 14 10 10 12
24 22 20 18 15 12 10 8 6 7 7 4 3 2 2 5 5 8 7 3 7 11 9 7 3 4 7 7 13 10 10 8 1 3 4 5 18 14 14 15 12 13 11 11 13
27 25 23 20 18 16 14 13 10 9 9 7 5 5 2 4 4 7 6 4 5 8 12 7 6 3 8 4 8 9 14 5 4 5 5 7 14 14 16 19 19 17 15 16 12
32 29 26 23 21 20 19 18 15 12 12 9 8 7 6 4 4 4 4 6 5 8 11 9 6 5 5 3 4 6 7 6 2 2 4 6 8 16 18 17 15 16 15 11 14
36 33 30 26 24 26 26 21 18 13 12 12 11 11 9 5 4 1 3 5 8 7 10 6 7 7 6 4 3 4 6 9 5 3 3 3 3 15 10 11 12 13 11 11 10
41 38 35 31 32 31 26 23 22 18 15 14 11 10 10 8 4 4 3 7 8 7 4 8 3 7 3 3 5 6 11 9 9 4 2 4 5 12 11 10 15 13 11 12 14
44 41 42 40 36 34 29 28 25 22 20 17 16 14 13 11 9 5 5 5 9 8 8 7 8 8 9 9 16 15 11 13 7 4 5 4 5 8 8 6 6 10 9 13 16
50 52 50 40 47 39 32 27 28 28 24 20 20 17 14 12 11 10 7 7 9 6 5 5 7 12 14 19 17 16 14 10 11 8 5 5 7 5 3 3 4 6 9 10 9
59 58 55 55 35 40 38 40 32 27 28 25 22 13 15 15 12 10 10 8 8 8 6 7 7 13 18 10 9 13 10 12 12 10 8 6 5 3 2 1 3 5 8 11 11
67 63 50 52 53 43 39 44 35 33 27 25 18 19 17 10 15 14 12 11 11 12 10 10 7 7 5 9 19 11 4 14 11 8 5 4 5 2 3 4 5 5 6 7 7

GFSSW_700_spd_117.txt.gz
Wind_Speed
3 4 4 5 5 6 7 8 7 6 6 5 6 6 7 6 7 8 11 10 10 10 10 10 10 10 8 8 8 10 10 14 15 17 17 13 14 14 16 18 11 13 13 17 2
4 4 5 6 7 7 9 9 8 6 5 5 5 5 5 3 7 9 9 9 10 11 13 12 11 10 8 8 9 8 10 12 12 11 13 14 15 15 17 16 15 16 14 25 24
5 5 6 7 9 9 10 9 8 6 4 3 3 4 5 1 4 7 8 9 10 12 12 11 9 7 5 7 6 6 12 12 13 12 14 16 17 17 18 21 19 18 15 17 23
5 6 8 9 10 10 10 9 7 4 3 2 2 3 3 4 0 5 7 9 11 13 15 14 11 6 4 5 9 8 10 10 12 12 14 16 16 18 19 20 20 21 22 22 17
6 8 10 10 10 10 10 8 6 4 3 1 0 0 2 6 2 6 8 10 12 14 15 14 9 8 6 9 10 10 9 13 15 16 16 17 18 18 19 19 18 19 22 26 22
7 8 9 9 10 10 9 7 6 4 3 2 2 1 2 2 5 7 9 11 12 13 16 15 11 9 5 9 7 10 12 13 13 12 13 14 17 15 13 12 12 14 19 21 25
7 8 6 8 9 10 8 5 4 3 3 3 2 1 2 4 5 7 9 11 13 13 15 14 11 10 8 8 9 9 9 9 5 10 12 12 14 15 13 13 12 11 12 14 19
7 6 4 7 9 9 7 5 4 3 4 4 3 1 2 5 6 7 11 13 13 13 14 11 10 10 11 10 8 8 7 12 11 9 12 11 15 9 10 12 15 14 14 16 18
7 5 2 6 9 9 6 4 3 3 4 4 3 1 6 7 8 7 10 14 15 12 13 9 10 9 13 14 12 5 17 15 13 13 12 12 18 15 14 19 19 17 18 18 17
8 6 2 3 7 8 6 3 3 3 4 4 4 1 5 8 7 7 9 14 12 13 13 11 8 8 10 13 13 18 18 15 15 13 13 11 14 14 12 14 14 15 17 17 19
10 8 4 1 3 6 6 4 1 3 6 6 8 6 6 8 7 7 10 14 12 10 8 7 4 7 10 11 13 16 17 16 15 8 11 13 10 4 10 10 9 10 10 11 15
12 11 7 4 2 3 5 4 2 6 8 8 8 6 8 9 9 9 10 10 10 7 9 8 5 9 11 12 15 16 14 16 9 9 10 19 6 4 12 11 11 13 13 11 15
14 13 10 7 4 3 4 3 4 6 4 8 10 11 11 9 9 10 10 12 9 5 8 6 7 11 11 13 16 14 11 20 16 14 9 22 7 5 16 13 14 9 9 10 11
17 16 14 12 10 7 4 4 2 5 4 8 8 7 6 9 4 9 9 10 6 5 8 5 10 10 11 11 15 11 22 14 7 8 10 15 3 4 20 19 17 16 13 11 14
20 18 15 13 10 9 6 3 2 7 4 7 8 6 6 4 5 6 10 11 7 5 5 5 10 9 8 13 12 13 18 9 5 8 9 16 7 8 24 27 27 21 14 7 9
24 21 18 14 12 10 7 4 5 3 5 6 4 4 4 3 5 7 9 9 5 6 7 6 6 7 8 12 11 22 15 10 7 6 2 17 7 9 27 28 25 26 15 10 7
26 24 21 18 13 11 9 6 5 8 5 6 5 3 2 4 4 6 7 4 3 4 3 7 4 9 10 13 9 18 17 4 3 5 7 17 5 7 19 26 23 22 19 8 3
29 27 25 22 18 14 11 10 11 5 8 8 6 5 3 3 3 6 3 2 7 4 6 3 3 5 11 10 13 11 11 4 2 5 7 10 11 10 20 21 20 18 15 9 7
33 30 28 25 22 19 16 14 14 10 12 11 8 7 6 4 2 3 2 2 5 5 3 3 2 6 9 7 11 9 11 7 3 5 6 1 14 9 15 17 17 20 17 9 11
37 34 32 27 25 23 21 22 13 20 13 11 8 8 8 6 2 1 2 5 6 5 3 5 4 5 10 5 8 8 12 4 3 4 5 4 10 13 18 19 18 14 16 15 11
38 38 38 31 28 27 26 21 21 21 16 13 11 10 9 7 6 4 4 5 6 8 5 3 2 2 8 1 3 6 6 6 4 3 4 7 8 12 13 15 13 12 15 15 14
42 42 43 35 33 33 29 23 27 20 19 17 15 14 11 11 7 7 4 4 6 6 3 4 4 5 3 8 4 4 3 6 6 8 6 6 4 11 13 10 11 10 13 12 11
47 43 42 41 40 31 29 31 29 26 22 19 17 16 15 13 7 10 8 5 5 5 2 5 2 6 6 1 2 2 6 7 7 6 7 5 5 11 10 7 9 7 9 11 12
43 42 48 49 45 32 30 34 33 30 27 23 21 18 15 16 14 7 10 6 7 7 6 6 6 9 9 6 8 12 10 8 9 6 11 5 5 5 6 5 5 4 8 11 13
52 46 40 49 56 47 34 25 34 34 29 27 26 22 18 16 16 16 13 10 9 7 5 5 6 9 14 14 14 16 14 14 15 13 9 8 8 6 4 4 3 3 3 7 10
63 52 36 39 33 55 46 47 34 34 35 32 29 21 20 21 16 9 10 10 8 7 6 6 6 11 14 9 9 12 13 11 14 15 14 14 13 8 6 3 2 1 3 6 8
68 51 39 46 31 37 55 55 40 37 33 32 25 24 22 18 19 17 14 13 12 10 9 7 5 7 4 7 11 12 6 12 13 12 8 7 5 9 6 5 5 5 5 4 5

GFSSW_700_spd_120.txt.gz
Wind_Speed
4 4 6 6 6 7 8 9 9 7 6 5 4 4 3 3 5 6 12 9 10 9 10 8 8 9 7 6 4 6 10 10 11 15 15 12 11 16 17 20 23 18 13 19 27
4 5 6 6 8 8 9 9 8 7 5 4 4 3 3 2 6 10 8 9 10 11 11 11 10 11 8 7 7 5 7 8 14 15 15 13 13 13 14 12 13 20 11 24 29
5 6 7 8 9 10 10 9 8 6 5 3 3 3 3 1 5 7 8 9 10 10 9 12 10 9 5 10 4 4 11 11 17 15 18 19 19 18 17 21 19 16 14 13 21
6 7 8 10 11 10 10 9 7 6 4 3 2 2 2 2 2 6 8 9 9 9 13 11 9 8 7 6 8 14 7 13 15 15 17 18 15 17 17 20 21 22 26 22 11
7 7 9 10 10 10 9 7 6 5 3 3 1 1 1 3 6 8 9 10 10 11 13 11 8 8 3 7 9 10 11 14 17 15 17 15 17 18 18 17 17 18 23 33 25
7 7 8 9 10 8 6 5 4 4 3 3 2 1 2 1 10 10 10 10 11 12 12 11 9 7 5 9 9 10 11 11 11 12 14 14 17 14 14 12 12 13 17 19 26
7 7 6 7 8 7 6 4 3 3 3 3 2 2 3 4 10 11 10 10 12 12 12 11 9 11 11 9 5 13 11 12 7 9 15 17 10 9 10 7 12 11 10 14 17
7 5 5 6 7 8 6 4 3 3 3 3 3 3 5 6 10 10 11 15 12 10 11 10 11 10 12 16 13 11 8 13 12 18 11 17 14 7 7 11 13 14 14 13 12
7 6 5 5 6 7 6 4 2 2 3 4 4 3 5 9 10 10 9 10 12 10 9 11 10 10 11 14 15 4 15 15 15 7 9 12 16 11 13 16 19 17 16 16 17
9 8 7 5 3 5 5 4 3 3 4 5 6 3 6 6 12 10 9 10 12 10 14 16 9 10 8 11 11 15 17 16 16 13 18 7 16 9 12 11 13 9 9 11 16
12 10 9 6 3 2 4 3 2 3 6 8 7 9 10 9 10 11 8 10 14 14 6 10 6 4 12 9 10 15 17 19 15 14 15 8 14 6 5 6 13 12 10 14 14
15 13 12 8 5 3 3 4 2 5 8 10 10 10 10 11 10 12 6 9 9 7 8 8 8 9 14 12 13 16 17 13 18 8 14 13 21 5 10 15 23 19 18 14 21
17 16 14 11 8 6 4 5 6 7 7 8 9 10 13 10 9 8 12 10 8 6 6 8 9 13 11 10 14 12 10 20 15 9 9 10 3 6 10 18 24 25 18 19 20
21 19 18 15 13 10 7 5 5 5 6 11 6 8 6 6 6 7 8 8 3 6 7 3 10 10 9 8 15 13 18 15 9 8 10 10 3 4 11 25 28 20 22 17 16
24 22 20 19 16 12 9 6 4 5 4 7 11 6 5 4 5 4 8 7 5 7 7 4 11 8 7 10 11 15 19 15 14 6 7 14 5 1 20 29 30 23 22 15 12
27 25 23 20 17 13 9 7 8 4 7 10 8 6 4 1 3 6 9 7 5 6 3 5 9 4 8 9 9 18 19 6 10 3 2 14 5 7 25 28 30 23 20 15 6
30 28 26 23 20 15 12 10 9 8 6 8 11 8 4 7 4 4 2 3 3 5 3 6 8 11 5 9 7 14 20 6 3 2 2 12 4 5 20 25 26 28 20 14 5
33 32 29 27 22 18 16 17 12 7 16 11 11 8 5 6 5 4 2 4 9 3 6 3 4 2 8 7 9 9 13 4 2 3 5 7 4 8 15 20 24 22 20 15 9
37 34 34 28 27 24 21 24 12 17 17 17 11 10 10 10 5 2 4 6 6 6 1 3 3 8 5 6 7 5 10 6 3 7 4 4 7 11 16 15 18 19 16 14 11
39 39 38 34 29 29 30 33 22 19 14 14 14 8 12 11 7 5 7 6 5 4 3 3 4 6 10 4 5 8 8 3 2 3 5 4 8 11 17 17 13 14 10 11 12
43 42 43 36 32 36 42 41 28 21 19 20 17 10 12 14 10 8 6 6 5 4 4 6 3 2 7 1 2 3 3 2 5 2 2 4 5 11 16 14 12 12 15 10 6
47 46 41 42 39 45 48 42 32 24 25 23 19 18 14 15 12 11 8 10 4 3 1 6 6 6 4 9 6 4 4 1 2 4 6 10 2 12 15 13 14 11 13 14 9
54 48 42 41 48 51 45 43 30 29 32 26 24 21 20 18 11 14 16 10 7 3 2 3 2 5 5 3 1 2 4 7 2 5 8 3 2 8 12 9 13 11 8 11 11
54 45 50 47 51 38 48 42 37 36 33 28 24 25 20 20 19 11 16 12 9 6 3 5 8 10 10 5 5 8 8 10 6 4 10 4 6 5 12 11 9 6 11 7 7
51 53 42 49 58 50 34 32 35 38 41 34 31 29 25 21 20 21 17 14 12 9 5 6 7 6 15 17 16 15 15 13 17 15 8 7 7 8 14 11 5 4 3 6 8
55 61 48 35 33 53 49 50 38 43 43 42 38 32 28 24 20 17 20 17 13 10 9 7 5 9 14 6 9 14 13 13 14 15 16 14 9 9 12 8 5 0 3 4 7
57 58 50 40 32 29 53 57 46 35 41 38 33 31 28 24 22 21 14 13 14 10 10 8 4 4 5 5 9 12 8 10 13 13 10 11 10 9 9 7 6 3 3 3 4

GFSSW_700_spd_123.txt.gz
Wind_Speed
6 5 6 6 7 7 8 9 9 8 7 5 3 3 3 3 3 3 9 10 9 9 9 6 3 6 3 1 2 5 8 6 6 12 13 15 18 17 12 7 4 10 19 22 21
7 6 6 7 8 9 10 10 9 7 6 4 3 2 3 4 3 5 8 9 10 9 10 8 7 8 8 9 5 3 6 5 8 16 20 23 21 19 23 23 14 11 8 19 20
7 7 7 7 9 11 11 10 9 6 5 4 3 1 2 4 3 6 7 9 10 9 9 8 7 8 8 7 9 8 11 9 14 19 24 27 25 26 27 29 22 17 13 17 15
8 8 8 9 10 11 10 9 7 5 5 4 2 1 1 1 1 6 8 10 10 9 8 9 7 7 3 3 6 14 7 7 11 18 16 17 17 17 19 26 30 28 22 20 17
8 9 9 9 9 10 8 7 5 5 5 3 2 2 2 3 4 7 9 10 9 7 8 7 8 7 5 4 6 6 11 10 9 8 14 22 18 20 15 14 13 14 22 31 27
8 8 9 8 8 8 6 5 3 4 4 3 3 3 4 5 5 8 9 9 8 9 9 8 8 9 8 5 9 8 7 8 11 8 10 20 19 11 16 10 6 12 18 16 21
10 8 8 6 7 7 4 2 2 3 3 4 3 3 5 5 6 7 9 8 9 8 8 8 8 10 11 7 11 10 9 13 6 5 13 21 13 9 13 5 11 14 12 13 12
12 9 7 6 6 6 4 2 1 2 3 4 4 5 5 5 6 10 9 8 8 6 6 8 7 10 11 11 17 5 9 14 12 14 14 17 14 13 18 18 16 17 17 17 16
13 11 9 6 7 5 3 1 1 1 3 5 6 6 6 6 7 9 7 8 10 8 4 7 7 6 10 14 7 0 13 12 11 8 9 17 11 17 21 23 24 24 24 28 26
13 12 11 8 7 5 4 2 2 3 5 6 6 6 7 7 8 12 7 7 6 6 4 11 4 5 7 14 9 11 17 18 22 14 15 12 13 16 21 14 15 23 25 19 26
16 14 12 10 9 5 4 3 2 4 5 7 5 9 8 6 9 12 6 7 7 7 7 9 9 8 8 13 9 14 15 18 15 11 12 11 14 18 16 10 18 25 25 22 20
18 16 14 13 10 8 5 5 5 5 7 7 11 10 10 9 10 11 4 8 9 9 4 7 12 10 11 10 10 11 12 15 20 8 13 9 19 16 19 17 29 34 29 23 19
21 19 17 16 13 11 7 6 7 8 11 8 10 11 9 8 8 11 8 9 9 7 3 10 10 9 14 7 11 13 9 17 13 10 5 4 5 10 17 20 29 28 26 25 19
25 22 20 18 17 14 10 8 8 6 7 9 8 8 7 5 5 6 5 7 5 3 7 7 8 10 10 6 13 12 12 6 9 11 3 8 4 13 14 29 31 26 25 22 15
28 26 23 21 19 16 14 11 9 7 2 4 13 9 6 5 2 2 4 4 5 8 6 4 6 11 6 7 10 11 17 6 8 8 8 9 5 7 16 28 29 27 26 20 11
31 30 27 24 21 17 15 13 10 7 8 10 8 11 10 7 5 2 1 1 2 3 2 5 6 4 8 7 6 15 9 2 2 3 2 7 5 6 20 25 29 28 24 19 9
34 34 31 27 22 18 16 15 13 9 5 12 13 14 10 10 5 3 4 1 4 4 2 2 8 8 4 5 6 8 12 5 4 2 4 9 6 7 18 23 24 28 22 17 8
37 37 36 29 25 21 20 21 13 11 19 8 12 14 12 10 9 5 4 3 6 5 5 2 5 7 6 6 3 8 11 3 4 0 5 5 5 8 15 26 19 23 20 17 10
42 39 41 30 29 27 26 29 25 23 13 24 14 16 16 14 10 9 8 7 9 6 4 5 4 4 3 4 3 2 4 6 1 4 3 1 1 4 20 18 17 20 13 15 13
46 44 43 36 32 31 35 41 33 21 11 22 23 13 17 17 16 11 9 7 9 5 4 5 3 3 5 2 2 4 4 2 2 2 3 2 2 11 19 20 20 16 10 11 12
47 49 45 40 38 39 49 48 43 33 16 18 18 17 12 16 14 15 8 8 7 5 4 5 6 4 5 4 3 2 3 2 2 2 3 2 4 11 16 17 18 13 11 11 10
33 52 50 45 45 51 54 50 42 39 26 24 21 21 18 16 19 17 14 13 7 6 4 5 4 4 7 7 7 7 7 4 3 3 3 4 4 9 14 15 14 12 10 8 10
45 45 50 45 52 57 53 50 44 43 31 25 25 23 25 24 19 22 21 17 13 9 4 5 6 4 3 9 8 7 7 5 6 4 5 1 4 7 13 16 12 9 5 5 8
42 49 33 48 58 58 55 53 51 47 39 35 31 28 27 26 25 16 23 20 17 12 9 6 9 9 9 6 3 8 8 9 9 6 4 5 4 6 13 15 9 7 6 4 3
43 51 49 48 61 53 47 48 54 49 44 32 37 36 34 31 29 27 21 21 20 15 13 10 7 9 12 13 13 17 19 18 21 18 10 11 5 8 13 12 6 3 3 4 5
38 50 52 54 45 64 42 46 48 52 43 46 40 40 34 33 32 28 26 23 19 18 17 14 7 7 7 5 7 11 14 17 20 20 22 20 16 10 8 9 6 3 1 3 5
29 49 46 50 42 43 53 59 49 41 46 43 46 38 38 35 26 23 16 18 19 19 16 15 10 5 4 4 6 13 6 11 13 17 14 21 13 9 7 8 5 6 5 4 5